FW8404 Weather Reports


time (UTC)temp
C
wind
direction
speed
KPH
gust
KPH
rain 1hr
cm
rain 24hr
cm
rain mn
cm
humidity
%
barometer
mb
20211017162009 15 33 9.7 9.7 0.00 0.00 0.00 42 1025.1
20211017161909 15 326 9.7 14.5 0.00 0.00 0.00 42 1025.1
20211017161809 15 307 14.5 14.5 0.00 0.00 0.00 42 1025.1
20211017161709 15 325 6.4 14.5 0.00 0.00 0.00 43 1025.0
20211017161609 15 12 12.9 14.5 0.00 0.00 0.00 44 1025.0
20211017161509 15 39 3.2 17.7 0.00 0.00 0.00 44 1025.0
20211017161409 15 39 17.7 17.7 0.00 0.00 0.00 46 1025.0
20211017161309 15 1 12.9 12.9 0.00 0.00 0.00 46 1025.0
20211017161209 15 22 4.8 6.4 0.00 0.00 0.00 46 1025.0
20211017161109 15 351 4.8 11.3 0.00 0.00 0.00 46 1025.0
20211017161009 15 8 11.3 14.5 0.00 0.00 0.00 45 1025.0
20211017160909 15 3 8.0 14.5 0.00 0.00 0.00 45 1025.0
20211017160809 15 38 6.4 14.5 0.00 0.00 0.00 45 1025.0
20211017160709 15 15 14.5 14.5 0.00 0.00 0.00 43 1025.0
20211017160609 15 31 9.7 14.5 0.00 0.00 0.00 44 1025.0
20211017160509 15 27 8.0 16.1 0.00 0.00 0.00 44 1025.0
20211017160409 15 356 9.7 16.1 0.00 0.00 0.00 44 1025.0
20211017160309 15 346 9.7 16.1 0.00 0.00 0.00 44 1025.0
20211017160209 15 11 11.3 20.9 0.00 0.00 0.00 43 1025.0
20211017160109 15 353 9.7 20.9 0.00 0.00 0.00 43 1025.0
20211017160009 15 313 6.4 11.3 0.00 0.00 0.00 48 1025.0
20211017155909 15 26 11.3 11.3 0.00 0.00 0.00 47 1025.0
20211017155810 15 321 4.8 6.4 0.00 0.00 0.00 47 1025.0
20211017155709 15 327 3.2 9.7 0.00 0.00 0.00 47 1025.0
20211017155609 15 310 6.4 11.3 0.00 0.00 0.00 48 1025.0
20211017155509 15 307 11.3 14.5 0.00 0.00 0.00 48 1025.0
20211017155409 15 315 12.9 12.9 0.00 0.00 0.00 49 1025.0
20211017155309 15 307 6.4 11.3 0.00 0.00 0.00 49 1025.0
20211017155209 15 5 6.4 12.9 0.00 0.00 0.00 49 1025.0
20211017155109 15 315 6.4 12.9 0.00 0.00 0.00 48 1025.0
20211017155009 15 4 8.0 14.5 0.00 0.00 0.00 49 1025.0
20211017154909 15 316 6.4 12.9 0.00 0.00 0.00 49 1025.0
20211017154809 15 320 11.3 11.3 0.00 0.00 0.00 48 1025.0
20211017154709 15 354 6.4 9.7 0.00 0.00 0.00 48 1025.0
20211017154609 15 5 8.0 12.9 0.00 0.00 0.00 47 1025.0
20211017154509 15 329 8.0 9.7 0.00 0.00 0.00 47 1025.0
20211017154409 15 344 1.6 9.7 0.00 0.00 0.00 48 1025.0
20211017154309 14 22 9.7 16.1 0.00 0.00 0.00 48 1025.0
20211017154210 14 29 9.7 12.9 0.00 0.00 0.00 48 1025.0
20211017154109 14 339 4.8 14.5 0.00 0.00 0.00 48 1025.0
20211017154009 14 324 9.7 12.9 0.00 0.00 0.00 51 1025.0
20211017153909 14 319 9.7 11.3 0.00 0.00 0.00 51 1025.0
20211017153809 14 334 11.3 12.9 0.00 0.00 0.00 54 1024.9
20211017153709 14 337 12.9 12.9 0.00 0.00 0.00 54 1024.9
20211017153609 14 262 11.3 12.9 0.00 0.00 0.00 54 1024.9
20211017153509 14 264 4.8 12.9 0.00 0.00 0.00 53 1024.9
20211017153409 14 279 6.4 11.3 0.00 0.00 0.00 53 1024.9
20211017153309 14 333 11.3 11.3 0.00 0.00 0.00 52 1024.9
20211017153209 14 270 4.8 11.3 0.00 0.00 0.00 52 1024.9
20211017153110 14 337 8.0 9.7 0.00 0.00 0.00 52 1024.9
20211017153009 14 27 3.2 14.5 0.00 0.00 0.00 51 1024.9
20211017152909 14 33 12.9 14.5 0.00 0.00 0.00 51 1024.9
20211017152809 14 317 6.4 9.7 0.00 0.00 0.00 53 1024.9
20211017152709 14 273 8.0 11.3 0.00 0.00 0.00 53 1025.0
20211017152609 14 318 9.7 9.7 0.00 0.00 0.00 53 1025.0
20211017152509 14 342 8.0 9.7 0.00 0.00 0.00 53 1025.0
20211017152409 14 324 3.2 8.0 0.00 0.00 0.00 53 1025.0
20211017152309 14 328 8.0 8.0 0.00 0.00 0.00 53 1025.0
20211017152209 14 300 6.4 9.7 0.00 0.00 0.00 53 1025.0
20211017152109 13 342 6.4 11.3 0.00 0.00 0.00 53 1025.0
20211017152009 13 294 4.8 11.3 0.00 0.00 0.00 53 1025.0
20211017151909 13 288 6.4 8.0 0.00 0.00 0.00 54 1025.0
20211017151810 13 313 4.8 8.0 0.00 0.00 0.00 54 1025.0
20211017151709 13 350 3.2 8.0 0.00 0.00 0.00 55 1025.0
20211017151609 13 317 1.6 9.7 0.00 0.00 0.00 55 1025.0
20211017151509 13 312 4.8 6.4 0.00 0.00 0.00 56 1025.0
20211017151409 13 20 4.8 14.5 0.00 0.00 0.00 56 1025.0
20211017151309 13 18 8.0 12.9 0.00 0.00 0.00 57 1025.0
20211017151209 13 36 9.7 11.3 0.00 0.00 0.00 57 1025.1
20211017151110 13 36 9.7 16.1 0.00 0.00 0.00 57 1025.1
20211017151009 13 38 9.7 9.7 0.00 0.00 0.00 57 1025.1
20211017150909 13 16 6.4 9.7 0.00 0.00 0.00 57 1025.1
20211017150809 13 13 8.0 11.3 0.00 0.00 0.00 56 1025.1
20211017150709 13 43 11.3 11.3 0.00 0.00 0.00 57 1025.1
20211017150609 13 52 9.7 14.5 0.00 0.00 0.00 58 1025.1
20211017150509 13 264 3.2 11.3 0.00 0.00 0.00 58 1025.1
20211017150409 13 24 6.4 14.5 0.00 0.00 0.00 58 1025.1
20211017150309 13 27 11.3 14.5 0.00 0.00 0.00 57 1025.1
20211017150209 13 319 6.4 14.5 0.00 0.00 0.00 57 1025.1
20211017150109 13 10 6.4 14.5 0.00 0.00 0.00 60 1025.1
20211017150009 13 334 3.2 4.8 0.00 0.00 0.00 60 1025.1
20211017145909 13 330 1.6 11.3 0.00 0.00 0.00 60 1025.1
20211017145809 13 25 4.8 6.4 0.00 0.00 0.00 62 1025.1
20211017145709 13 10 3.2 8.0 0.00 0.00 0.00 63 1025.1
20211017145609 13 279 1.6 4.8 0.00 0.00 0.00 63 1025.1
20211017145509 13 288 1.6 6.4 0.00 0.00 0.00 63 1025.1
20211017145409 13 355 3.2 8.0 0.00 0.00 0.00 63 1025.1
20211017145309 13 355 6.4 8.0 0.00 0.00 0.00 62 1025.1
20211017145209 13 44 6.4 9.7 0.00 0.00 0.00 62 1025.1
20211017145109 13 239 4.8 9.7 0.00 0.00 0.00 62 1025.1
20211017145009 13 4 8.0 9.7 0.00 0.00 0.00 61 1025.0
20211017144909 13 2 3.2 6.4 0.00 0.00 0.00 61 1025.0
20211017144809 12 264 1.6 6.4 0.00 0.00 0.00 62 1025.0
20211017144709 12 15 4.8 6.4 0.00 0.00 0.00 64 1025.0
20211017144609 12 246 1.6 6.4 0.00 0.00 0.00 62 1025.0
20211017144509 12 14 3.2 9.7 0.00 0.00 0.00 62 1025.0
20211017144409 12 355 9.7 9.7 0.00 0.00 0.00 64 1025.0
20211017144309 12 302 1.6 9.7 0.00 0.00 0.00 64 1025.0
20211017144209 12 3 4.8 6.4 0.00 0.00 0.00 64 1025.0
20211017144109 12 356 1.6 9.7 0.00 0.00 0.00 64 1025.0
20211017144009 12 338 3.2 8.0 0.00 0.00 0.00 63 1025.0
20211017143909 12 353 3.2 12.9 0.00 0.00 0.00 62 1025.0
20211017143809 12 318 4.8 11.3 0.00 0.00 0.00 64 1024.9
20211017143709 12 338 11.3 11.3 0.00 0.00 0.00 65 1025.0
20211017143609 12 337 9.7 12.9 0.00 0.00 0.00 65 1025.0
20211017143509 12 346 6.4 9.7 0.00 0.00 0.00 65 1025.0
20211017143409 12 338 4.8 8.0 0.00 0.00 0.00 65 1025.0
20211017143217 12 271 0.0 6.4 0.00 0.00 0.00 66 1025.0
20211017143117 12 10 3.2 12.9 0.00 0.00 0.00 66 1025.0
20211017143017 12 330 11.3 12.9 0.00 0.00 0.00 66 1025.0
20211017142917 12 292 4.8 9.7 0.00 0.00 0.00 67 1025.0
20211017142817 12 354 3.2 8.0 0.00 0.00 0.00 67 1025.0
20211017142717 12 343 6.4 11.3 0.00 0.00 0.00 66 1025.0
20211017142617 12 317 11.3 11.3 0.00 0.00 0.00 66 1025.0
20211017142517 12 310 11.3 11.3 0.00 0.00 0.00 67 1025.0
20211017142417 12 291 3.2 12.9 0.00 0.00 0.00 67 1025.0
20211017142317 12 332 12.9 12.9 0.00 0.00 0.00 67 1025.0
20211017142217 11 314 6.4 16.1 0.00 0.00 0.00 66 1025.0
20211017142117 11 334 16.1 16.1 0.00 0.00 0.00 68 1025.0
20211017142018 11 326 8.0 14.5 0.00 0.00 0.00 67 1025.0
20211017141917 11 323 12.9 14.5 0.00 0.00 0.00 68 1025.0
20211017141817 11 338 8.0 12.9 0.00 0.00 0.00 69 1025.0
20211017141717 11 339 8.0 12.9 0.00 0.00 0.00 69 1025.0
20211017141617 11 290 4.8 11.3 0.00 0.00 0.00 70 1025.0
20211017141517 11 315 4.8 14.5 0.00 0.00 0.00 69 1025.0
20211017141417 11 328 11.3 14.5 0.00 0.00 0.00 70 1025.0
20211017141317 11 333 4.8 11.3 0.00 0.00 0.00 71 1025.0
20211017141217 11 315 8.0 14.5 0.00 0.00 0.00 70 1025.0
20211017141117 11 318 9.7 12.9 0.00 0.00 0.00 71 1025.0
20211017141017 11 321 6.4 12.9 0.00 0.00 0.00 72 1025.0
20211017140917 11 319 8.0 12.9 0.00 0.00 0.00 71 1025.0
20211017140817 11 337 12.9 12.9 0.00 0.00 0.00 72 1024.9
20211017140717 11 316 4.8 11.3 0.00 0.00 0.00 72 1024.9
20211017140617 11 339 8.0 11.3 0.00 0.00 0.00 73 1024.9
20211017140517 11 323 9.7 14.5 0.00 0.00 0.00 72 1024.9
20211017140417 11 345 11.3 14.5 0.00 0.00 0.00 72 1024.9
20211017140317 11 321 9.7 12.9 0.00 0.00 0.00 74 1024.9
20211017140217 11 326 8.0 9.7 0.00 0.00 0.00 76 1024.9
20211017140117 11 329 4.8 9.7 0.00 0.00 0.00 76 1024.9
20211017140017 11 315 6.4 11.3 0.00 0.00 0.00 75 1024.9
20211017135917 11 338 9.7 11.3 0.00 0.00 0.00 76 1024.9
20211017135817 11 332 11.3 11.3 0.00 0.00 0.00 76 1024.9
20211017135717 11 336 6.4 11.3 0.00 0.00 0.00 76 1024.9
20211017135617 11 321 9.7 11.3 0.00 0.00 0.00 76 1024.9
20211017135517 11 331 8.0 9.7 0.00 0.00 0.00 76 1024.9
20211017135418 11 304 6.4 9.7 0.00 0.00 0.00 76 1024.9
20211017135317 10 341 6.4 9.7 0.00 0.00 0.00 76 1024.9
20211017135217 10 328 6.4 8.0 0.00 0.00 0.00 76 1024.8
20211017135117 10 339 8.0 8.0 0.00 0.00 0.00 76 1024.8
20211017135017 10 351 3.2 8.0 0.00 0.00 0.00 76 1024.8
20211017134917 10 167 1.6 11.3 0.00 0.00 0.00 77 1024.8
20211017134817 10 329 8.0 11.3 0.00 0.00 0.00 76 1024.8
20211017134717 10 11 3.2 8.0 0.00 0.00 0.00 76 1024.8
20211017134617 10 325 3.2 8.0 0.00 0.00 0.00 77 1024.8
20211017134517 10 323 4.8 6.4 0.00 0.00 0.00 77 1024.8
20211017134417 10 323 4.8 6.4 0.00 0.00 0.00 77 1024.8
20211017134317 10 315 4.8 6.4 0.00 0.00 0.00 78 1024.8
20211017134218 10 319 3.2 8.0 0.00 0.00 0.00 77 1024.8
20211017134117 10 328 4.8 9.7 0.00 0.00 0.00 77 1024.8
20211017134017 10 325 4.8 9.7 0.00 0.00 0.00 77 1024.8
20211017133917 10 344 6.4 6.4 0.00 0.00 0.00 77 1024.8
20211017133817 10 305 3.2 6.4 0.00 0.00 0.00 77 1024.8
20211017133717 9 307 3.2 6.4 0.00 0.00 0.00 78 1024.8
20211017133617 9 47 4.8 4.8 0.00 0.00 0.00 78 1024.8
20211017133517 9 23 4.8 6.4 0.00 0.00 0.00 78 1024.8
20211017133417 9 279 3.2 6.4 0.00 0.00 0.00 78 1024.8
20211017133317 9 28 3.2 6.4 0.00 0.00 0.00 79 1024.8
20211017133217 9 331 4.8 4.8 0.00 0.00 0.00 79 1024.8
20211017133118 9 17 1.6 8.0 0.00 0.00 0.00 79 1024.8
20211017133017 9 345 6.4 8.0 0.00 0.00 0.00 79 1024.8
20211017132918 8 339 6.4 8.0 0.00 0.00 0.00 79 1024.8
20211017132817 8 5 3.2 4.8 0.00 0.00 0.00 79 1024.8
20211017132717 8 342 4.8 6.4 0.00 0.00 0.00 80 1024.8
20211017132617 8 353 3.2 6.4 0.00 0.00 0.00 80 1024.8
20211017132517 8 331 4.8 8.0 0.00 0.00 0.00 80 1024.8
20211017132417 8 341 8.0 8.0 0.00 0.00 0.00 80 1024.8
20211017132317 8 338 4.8 6.4 0.00 0.00 0.00 80 1024.8
20211017132217 8 328 6.4 6.4 0.00 0.00 0.00 80 1024.8
20211017132118 8 348 6.4 6.4 0.00 0.00 0.00 80 1024.8
20211017132017 8 1 3.2 4.8 0.00 0.00 0.00 81 1024.8
20211017131917 8 339 4.8 8.0 0.00 0.00 0.00 81 1024.8
20211017131817 8 333 4.8 8.0 0.00 0.00 0.00 82 1024.8
20211017131717 8 337 3.2 6.4 0.00 0.00 0.00 82 1024.8
20211017131617 8 335 4.8 8.0 0.00 0.00 0.00 81 1024.8
20211017131517 8 315 4.8 6.4 0.00 0.00 0.00 82 1024.7
20211017131417 8 325 4.8 9.7 0.00 0.00 0.00 82 1024.7
20211017131317 8 349 6.4 9.7 0.00 0.00 0.00 82 1024.7
20211017131217 8 336 6.4 9.7 0.00 0.00 0.00 82 1024.7
20211017131117 8 321 4.8 11.3 0.00 0.00 0.00 83 1024.7
20211017131017 8 325 9.7 12.9 0.00 0.00 0.00 83 1024.7
20211017130917 8 325 9.7 11.3 0.00 0.00 0.00 83 1024.7
20211017130817 8 316 9.7 11.3 0.00 0.00 0.00 83 1024.7
20211017130717 8 337 8.0 9.7 0.00 0.00 0.00 83 1024.7
20211017130618 7 334 8.0 9.7 0.00 0.00 0.00 83 1024.7
20211017130517 7 343 4.8 11.3 0.00 0.00 0.00 83 1024.7
20211017130417 7 329 8.0 9.7 0.00 0.00 0.00 84 1024.6
20211017130317 7 330 8.0 9.7 0.00 0.00 0.00 84 1024.6
20211017130217 7 329 9.7 9.7 0.00 0.00 0.00 84 1024.6
20211017130117 7 329 6.4 9.7 0.00 0.00 0.00 85 1024.6
20211017130017 7 317 6.4 11.3 0.00 0.00 0.00 85 1024.6
20211017125917 7 328 11.3 11.3 0.00 0.00 0.00 85 1024.6
20211017125817 7 325 9.7 11.3 0.00 0.00 0.00 85 1024.6
20211017125717 7 313 8.0 11.3 0.00 0.00 0.00 85 1024.6
20211017125617 7 336 9.7 12.9 0.00 0.00 0.00 85 1024.6
20211017125517 7 340 8.0 11.3 0.00 0.00 0.00 85 1024.6
20211017125417 7 324 9.7 9.7 0.00 0.00 0.00 85 1024.6
20211017125317 7 326 9.7 12.9 0.00 0.00 0.00 86 1024.6
20211017125217 7 329 11.3 12.9 0.00 0.00 0.00 86 1024.6
20211017125117 7 334 8.0 12.9 0.00 0.00 0.00 86 1024.6
20211017125017 7 328 9.7 12.9 0.00 0.00 0.00 87 1024.6
20211017124917 7 331 11.3 12.9 0.00 0.00 0.00 87 1024.5
20211017124817 7 330 11.3 12.9 0.00 0.00 0.00 87 1024.6
20211017124717 7 317 9.7 12.9 0.00 0.00 0.00 87 1024.6
20211017124617 7 330 11.3 11.3 0.00 0.00 0.00 88 1024.6
20211017124517 7 328 9.7 11.3 0.00 0.00 0.00 88 1024.6
20211017124417 6 330 11.3 11.3 0.00 0.00 0.00 88 1024.6
20211017124317 6 330 11.3 11.3 0.00 0.00 0.00 88 1024.6
20211017124217 6 328 9.7 11.3 0.00 0.00 0.00 88 1024.6
20211017124117 6 334 9.7 9.7 0.00 0.00 0.00 88 1024.6
20211017124017 6 332 8.0 11.3 0.00 0.00 0.00 88 1024.5
20211017123917 6 335 9.7 11.3 0.00 0.00 0.00 89 1024.5
20211017123817 6 340 9.7 9.7 0.00 0.00 0.00 89 1024.5
20211017123717 6 326 8.0 11.3 0.00 0.00 0.00 89 1024.5
20211017123617 6 335 8.0 9.7 0.00 0.00 0.00 89 1024.5
20211017123517 6 335 9.7 9.7 0.00 0.00 0.00 89 1024.5
20211017123417 6 339 8.0 9.7 0.00 0.00 0.00 90 1024.5
20211017123317 6 347 8.0 8.0 0.00 0.00 0.00 90 1024.5
20211017123217 6 331 8.0 9.7 0.00 0.00 0.00 90 1024.5
20211017123117 6 339 6.4 9.7 0.00 0.00 0.00 90 1024.5
20211017123017 6 332 8.0 8.0 0.00 0.00 0.00 90 1024.5
20211017122917 6 315 4.8 9.7 0.00 0.00 0.00 90 1024.5
20211017122817 6 343 9.7 9.7 0.00 0.00 0.00 90 1024.5
20211017122717 6 338 8.0 9.7 0.00 0.00 0.00 90 1024.5
20211017122617 6 340 6.4 9.7 0.00 0.00 0.00 90 1024.4
20211017122517 6 338 9.7 9.7 0.00 0.00 0.00 90 1024.4
20211017122417 6 348 6.4 9.7 0.00 0.00 0.00 91 1024.4
20211017122317 6 336 8.0 9.7 0.00 0.00 0.00 91 1024.4
20211017122217 6 341 6.4 9.7 0.00 0.00 0.00 91 1024.4
20211017122117 6 341 9.7 11.3 0.00 0.00 0.00 91 1024.4
20211017122017 6 342 11.3 11.3 0.00 0.00 0.00 91 1024.4
20211017121917 6 340 8.0 9.7 0.00 0.00 0.00 91 1024.4
20211017121817 6 342 8.0 9.7 0.00 0.00 0.00 91 1024.4
20211017121717 6 340 8.0 9.7 0.00 0.00 0.00 91 1024.4
20211017121617 6 342 8.0 9.7 0.00 0.00 0.00 91 1024.4
20211017121517 6 345 6.4 8.0 0.00 0.00 0.00 91 1024.4
20211017121417 6 343 6.4 8.0 0.00 0.00 0.00 91 1024.4
20211017121317 6 341 4.8 9.7 0.00 0.00 0.00 91 1024.4
20211017121217 6 345 8.0 9.7 0.00 0.00 0.00 91 1024.4
20211017121117 6 337 9.7 9.7 0.00 0.00 0.00 91 1024.4
20211017121018 6 345 6.4 8.0 0.00 0.00 0.00 91 1024.4
20211017120917 6 2 3.2 9.7 0.00 0.00 0.00 91 1024.4
20211017120817 6 350 4.8 9.7 0.00 0.00 0.00 91 1024.3
20211017120717 6 335 6.4 9.7 0.00 0.00 0.00 91 1024.3
20211017120618 6 1 4.8 11.3 0.00 0.00 0.00 91 1024.3
20211017120517 6 346 9.7 9.7 0.00 0.00 0.00 91 1024.3
20211017120417 6 337 9.7 11.3 0.00 0.00 0.00 91 1024.3
20211017120317 6 336 9.7 11.3 0.00 0.00 0.00 91 1024.3
20211017120217 6 336 9.7 9.7 0.00 0.00 0.00 91 1024.2
20211017120117 6 335 8.0 9.7 0.00 0.00 0.00 91 1024.2
20211017120018 6 346 9.7 9.7 0.00 0.00 0.00 91 1024.2
20211017115917 6 349 8.0 9.7 0.00 0.00 0.00 91 1024.2
20211017115817 6 345 9.7 9.7 0.00 0.00 0.00 91 1024.2
20211017115717 6 359 3.2 11.3 0.00 0.00 0.00 91 1024.2
20211017115617 6 345 6.4 11.3 0.00 0.00 0.00 91 1024.2
20211017115517 6 332 9.7 11.3 0.00 0.00 0.00 91 1024.2
20211017115417 6 342 11.3 11.3 0.00 0.00 0.00 91 1024.2
20211017115317 6 331 11.3 12.9 0.00 0.00 0.00 91 1024.2
20211017115217 6 336 12.9 12.9 0.00 0.00 0.00 91 1024.2
20211017115117 6 339 11.3 11.3 0.00 0.00 0.00 91 1024.2
20211017115017 6 333 9.7 11.3 0.00 0.00 0.00 91 1024.2
20211017114917 6 339 11.3 11.3 0.00 0.00 0.00 91 1024.3
20211017114817 6 344 9.7 9.7 0.00 0.00 0.00 91 1024.3
20211017114717 6 335 9.7 9.7 0.00 0.00 0.00 91 1024.3
20211017114617 6 351 9.7 9.7 0.00 0.00 0.00 91 1024.3
20211017114517 6 345 6.4 8.0 0.00 0.00 0.00 91 1024.3
20211017114417 6 343 6.4 8.0 0.00 0.00 0.00 91 1024.3
20211017114317 6 343 6.4 8.0 0.00 0.00 0.00 91 1024.3
20211017114217 6 334 4.8 9.7 0.00 0.00 0.00 91 1024.3
20211017114117 6 349 8.0 9.7 0.00 0.00 0.00 92 1024.3
20211017114017 6 336 8.0 9.7 0.00 0.00 0.00 92 1024.3
20211017113917 6 338 8.0 8.0 0.00 0.00 0.00 92 1024.2
20211017113817 6 343 8.0 8.0 0.00 0.00 0.00 92 1024.2
20211017113717 6 346 6.4 8.0 0.00 0.00 0.00 92 1024.2
20211017113617 6 349 6.4 9.7 0.00 0.00 0.00 91 1024.2
20211017113517 6 351 8.0 9.7 0.00 0.00 0.00 91 1024.2
20211017113417 6 341 8.0 8.0 0.00 0.00 0.00 91 1024.2
20211017113317 6 337 8.0 8.0 0.00 0.00 0.00 91 1024.2
20211017113218 6 336 6.4 8.0 0.00 0.00 0.00 91 1024.2
20211017113118 6 345 4.8 6.4 0.00 0.00 0.00 91 1024.2
20211017113018 6 344 6.4 8.0 0.00 0.00 0.00 91 1024.2
20211017112917 6 342 4.8 8.0 0.00 0.00 0.00 91 1024.1
20211017112817 6 1 4.8 9.7 0.00 0.00 0.00 91 1024.1
20211017112717 6 359 4.8 9.7 0.00 0.00 0.00 91 1024.1
20211017112617 6 343 9.7 11.3 0.00 0.00 0.00 91 1024.1
20211017112517 6 345 9.7 9.7 0.00 0.00 0.00 91 1024.1
20211017112417 6 341 9.7 11.3 0.00 0.00 0.00 91 1024.1
20211017112317 6 341 9.7 9.7 0.00 0.00 0.00 91 1024.1
20211017112217 6 337 9.7 9.7 0.00 0.00 0.00 91 1024.1
20211017112117 6 345 9.7 9.7 0.00 0.00 0.00 91 1024.1
20211017112017 6 339 9.7 9.7 0.00 0.00 0.00 91 1024.1
20211017111917 6 354 4.8 9.7 0.00 0.00 0.00 91 1024.1
20211017111817 6 3 3.2 9.7 0.00 0.00 0.00 91 1024.1
20211017111717 6 352 8.0 9.7 0.00 0.00 0.00 91 1024.1
20211017111617 6 352 6.4 9.7 0.00 0.00 0.00 91 1024.1
20211017111517 6 350 4.8 8.0 0.00 0.00 0.00 91 1024.1
20211017111417 6 353 4.8 9.7 0.00 0.00 0.00 91 1024.0
20211017111317 6 345 8.0 11.3 0.00 0.00 0.00 91 1024.0
20211017111217 6 343 9.7 9.7 0.00 0.00 0.00 91 1024.0
20211017111118 6 341 8.0 9.7 0.00 0.00 0.00 91 1024.0
20211017111017 6 345 8.0 9.7 0.00 0.00 0.00 91 1024.0
20211017110917 6 347 8.0 9.7 0.00 0.00 0.00 91 1024.0
20211017110817 6 342 8.0 11.3 0.00 0.00 0.00 91 1024.0
20211017110717 6 339 9.7 11.3 0.00 0.00 0.00 91 1024.0
20211017110617 6 343 8.0 11.3 0.00 0.00 0.00 91 1024.0
20211017110517 6 341 8.0 8.0 0.00 0.00 0.00 91 1024.0
20211017110417 6 346 4.8 6.4 0.00 0.00 0.00 91 1024.0
20211017110317 6 332 6.4 8.0 0.00 0.00 0.00 91 1024.0
20211017110217 6 348 6.4 8.0 0.00 0.00 0.00 92 1024.0
20211017110117 6 169 1.6 6.4 0.00 0.00 0.00 92 1024.0
20211017110017 6 350 3.2 3.2 0.00 0.00 0.00 92 1024.0
20211017105917 6 350 3.2 4.8 0.00 0.00 0.00 92 1024.0
20211017105817 6 352 4.8 4.8 0.00 0.00 0.00 92 1024.0
20211017105717 6 179 3.2 4.8 0.00 0.00 0.00 92 1024.0
20211017105617 6 339 3.2 4.8 0.00 0.00 0.00 91 1024.0
20211017105517 6 0 1.6 6.4 0.00 0.00 0.00 91 1024.0
20211017105417 6 355 3.2 6.4 0.00 0.00 0.00 92 1023.9
20211017105317 6 12 1.6 3.2 0.00 0.00 0.00 92 1023.9
20211017105217 6 168 3.2 3.2 0.00 0.00 0.00 91 1023.9
20211017105117 6 23 1.6 4.8 0.00 0.00 0.00 91 1023.9
20211017105017 6 196 3.2 8.0 0.00 0.00 0.00 91 1023.9
20211017104917 6 348 8.0 8.0 0.00 0.00 0.00 91 1024.0
20211017104817 6 347 6.4 8.0 0.00 0.00 0.00 92 1024.0
20211017104717 6 346 3.2 6.4 0.00 0.00 0.00 92 1024.0
20211017104617 6 339 3.2 6.4 0.00 0.00 0.00 92 1024.0
20211017104517 6 203 3.2 6.4 0.00 0.00 0.00 92 1024.0
20211017104417 6 350 4.8 6.4 0.00 0.00 0.00 92 1024.0
20211017104318 6 340 6.4 6.4 0.00 0.00 0.00 93 1024.0
20211017104217 6 347 4.8 6.4 0.00 0.00 0.00 93 1024.0
20211017104117 6 345 4.8 6.4 0.00 0.00 0.00 93 1024.0
20211017104017 6 14 1.6 4.8 0.00 0.00 0.00 93 1024.0
20211017103917 6 25 3.2 4.8 0.00 0.00 0.00 93 1024.0
20211017103817 6 8 1.6 3.2 0.00 0.00 0.00 93 1024.0
20211017103717 6 301 1.6 4.8 0.00 0.00 0.00 93 1024.0
20211017103617 6 168 0.0 4.8 0.00 0.00 0.00 93 1024.0
20211017103517 6 161 1.6 3.2 0.00 0.00 0.00 93 1024.0
20211017103417 6 355 3.2 3.2 0.00 0.00 0.00 93 1024.0
20211017103317 6 2 3.2 4.8 0.00 0.00 0.00 93 1024.0
20211017103217 6 351 3.2 3.2 0.00 0.00 0.00 93 1024.0
20211017103117 6 168 1.6 4.8 0.00 0.00 0.00 93 1024.0
20211017103017 6 353 3.2 4.8 0.00 0.00 0.00 93 1024.0
20211017102917 6 175 3.2 3.2 0.00 0.00 0.00 93 1024.0
20211017102817 6 172 1.6 3.2 0.00 0.00 0.00 93 1023.9
20211017102717 6 191 3.2 3.2 0.00 0.00 0.00 93 1023.9
20211017102617 6 200 3.2 4.8 0.00 0.00 0.00 93 1023.9
20211017102517 6 190 3.2 4.8 0.00 0.00 0.00 93 1023.9
20211017102417 6 176 3.2 3.2 0.00 0.00 0.00 93 1023.9
20211017102317 6 175 3.2 4.8 0.00 0.00 0.00 93 1023.9
20211017102217 6 179 3.2 4.8 0.00 0.00 0.00 93 1023.9
20211017102117 6 199 3.2 3.2 0.00 0.00 0.00 93 1023.9
20211017102017 6 189 3.2 3.2 0.00 0.00 0.00 93 1023.9
20211017101917 6 183 3.2 3.2 0.00 0.00 0.00 92 1023.9
20211017101817 6 181 1.6 3.2 0.00 0.00 0.00 92 1023.9
20211017101717 6 196 3.2 3.2 0.00 0.00 0.00 92 1023.9
20211017101618 6 174 1.6 3.2 0.00 0.00 0.00 92 1023.9
20211017101517 6 295 3.2 3.2 0.00 0.00 0.00 92 1023.9
20211017101417 6 169 3.2 3.2 0.00 0.00 0.00 92 1023.9
20211017101317 6 179 3.2 3.2 0.00 0.00 0.00 92 1023.9
20211017101217 6 177 3.2 3.2 0.00 0.00 0.00 92 1023.9
20211017101117 6 169 1.6 3.2 0.00 0.00 0.00 92 1023.9
20211017101017 6 177 3.2 3.2 0.00 0.00 0.00 91 1023.8
20211017100917 6 171 0.0 3.2 0.00 0.00 0.00 91 1023.8
20211017100817 6 190 3.2 4.8 0.00 0.00 0.00 91 1023.8
20211017100717 6 175 3.2 4.8 0.00 0.00 0.00 90 1023.8
20211017100617 6 166 1.6 3.2 0.00 0.00 0.00 90 1023.8
20211017100517 6 155 1.6 3.2 0.00 0.00 0.00 90 1023.8
20211017100417 6 187 1.6 3.2 0.00 0.00 0.00 90 1023.7
20211017100317 6 352 3.2 4.8 0.00 0.00 0.00 90 1023.7
20211017100217 6 346 4.8 6.4 0.00 0.00 0.00 90 1023.7
20211017100117 6 350 4.8 6.4 0.00 0.00 0.00 90 1023.7
20211017100017 6 340 6.4 8.0 0.00 0.00 0.00 90 1023.7
20211017095917 6 338 8.0 8.0 0.00 0.00 0.00 90 1023.7
20211017095817 6 329 4.8 8.0 0.00 0.00 0.00 90 1023.7
20211017095717 6 341 8.0 8.0 0.00 0.00 0.00 91 1023.7
20211017095617 6 347 4.8 8.0 0.00 0.00 0.00 91 1023.7
20211017095517 6 350 3.2 6.4 0.00 0.00 0.00 91 1023.7
20211017095417 6 352 4.8 4.8 0.00 0.00 0.00 91 1023.8
20211017095317 6 1 1.6 4.8 0.00 0.00 0.00 91 1023.8
20211017095217 6 15 1.6 4.8 0.00 0.00 0.00 91 1023.8
20211017095117 6 157 1.6 6.4 0.00 0.00 0.00 91 1023.8
20211017095017 6 344 6.4 6.4 0.00 0.00 0.00 91 1023.7
20211017094917 6 344 6.4 6.4 0.00 0.00 0.00 91 1023.7
20211017094817 6 348 4.8 6.4 0.00 0.00 0.00 91 1023.7
20211017094717 6 335 4.8 6.4 0.00 0.00 0.00 92 1023.7
20211017094617 6 350 6.4 6.4 0.00 0.00 0.00 92 1023.8
20211017094517 6 352 4.8 6.4 0.00 0.00 0.00 92 1023.8
20211017094417 6 347 6.4 6.4 0.00 0.00 0.00 92 1023.8
20211017094317 6 350 4.8 6.4 0.00 0.00 0.00 93 1023.8
20211017094217 6 345 4.8 4.8 0.00 0.00 0.00 93 1023.8
20211017094117 6 22 1.6 3.2 0.00 0.00 0.00 92 1023.8
20211017094017 6 170 0.0 3.2 0.00 0.00 0.00 92 1023.8
20211017093917 6 196 3.2 4.8 0.00 0.00 0.00 93 1023.8
20211017093817 6 171 0.0 3.2 0.00 0.00 0.00 93 1023.8
20211017093717 6 165 0.0 4.8 0.00 0.00 0.00 93 1023.8
20211017093617 6 159 1.6 4.8 0.00 0.00 0.00 93 1023.8
20211017093517 6 179 3.2 3.2 0.00 0.00 0.00 93 1023.8
20211017093417 6 344 3.2 3.2 0.00 0.00 0.00 93 1023.8
20211017093317 6 4 1.6 3.2 0.00 0.00 0.00 93 1023.8
20211017093217 6 4 0.0 3.2 0.00 0.00 0.00 92 1023.8
20211017093117 6 175 3.2 3.2 0.00 0.00 0.00 93 1023.8
20211017093017 6 348 3.2 3.2 0.00 0.00 0.00 93 1023.8
20211017092917 6 354 3.2 3.2 0.00 0.00 0.00 93 1023.8
20211017092817 6 356 1.6 3.2 0.00 0.00 0.00 93 1023.8
20211017092717 6 358 1.6 4.8 0.00 0.00 0.00 92 1023.8
20211017092617 6 6 1.6 3.2 0.00 0.00 0.00 92 1023.8
20211017092517 6 177 1.6 3.2 0.00 0.00 0.00 92 1023.8
20211017092417 6 356 1.6 3.2 0.00 0.00 0.00 92 1023.8
20211017092317 6 190 3.2 3.2 0.00 0.00 0.00 92 1023.8
20211017092217 6 176 1.6 3.2 0.00 0.00 0.00 92 1023.7
20211017092117 6 196 1.6 3.2 0.00 0.00 0.00 92 1023.7
20211017092017 6 175 1.6 3.2 0.00 0.00 0.00 92 1023.7
20211017091917 6 170 1.6 3.2 0.00 0.00 0.00 92 1023.7
20211017091817 6 190 1.6 3.2 0.00 0.00 0.00 92 1023.7
20211017091717 6 186 3.2 3.2 0.00 0.00 0.00 92 1023.7
20211017091617 6 182 1.6 3.2 0.00 0.00 0.00 92 1023.7
20211017091517 6 33 1.6 3.2 0.00 0.00 0.00 92 1023.7
20211017091417 6 181 3.2 3.2 0.00 0.00 0.00 92 1023.7
20211017091317 6 149 1.6 3.2 0.00 0.00 0.00 92 1023.7
20211017091217 6 189 3.2 3.2 0.00 0.00 0.00 92 1023.7
20211017091117 6 195 1.6 1.6 0.00 0.00 0.00 92 1023.7
20211017091018 6 196 1.6 3.2 0.00 0.00 0.00 92 1023.7
20211017090917 6 216 3.2 3.2 0.00 0.00 0.00 92 1023.7
20211017090817 7 203 1.6 1.6 0.00 0.00 0.00 92 1023.7
20211017090717 7 205 0.0 1.6 0.00 0.00 0.00 92 1023.7
20211017090617 7 206 0.0 3.2 0.00 0.00 0.00 91 1023.7
20211017090519 7 197 1.6 3.2 0.00 0.00 0.00 91 1023.7
20211017090417 7 202 1.6 3.2 0.00 0.00 0.00 91 1023.7
20211017090317 7 225 3.2 3.2 0.00 0.00 0.00 91 1023.7
20211017090217 7 176 0.0 3.2 0.00 0.00 0.00 90 1023.7
20211017090117 7 181 3.2 4.8 0.00 0.00 0.00 90 1023.7
20211017090017 7 221 3.2 4.8 0.00 0.00 0.00 89 1023.6
20211017085917 7 305 4.8 6.4 0.00 0.00 0.00 89 1023.6
20211017085817 7 220 3.2 6.4 0.00 0.00 0.00 89 1023.6
20211017085717 7 318 4.8 6.4 0.00 0.00 0.00 89 1023.6
20211017085617 7 321 4.8 4.8 0.00 0.00 0.00 89 1023.6
20211017085517 7 328 4.8 6.4 0.00 0.00 0.00 89 1023.6
20211017085317 7 328 4.8 6.4 0.00 0.00 0.00 89 1023.6
20211017085217 7 331 4.8 6.4 0.00 0.00 0.00 88 1023.6
20211017085117 7 332 6.4 8.0 0.00 0.00 0.00 88 1023.6
20211017085017 7 321 6.4 9.7 0.00 0.00 0.00 88 1023.6
20211017084917 7 322 8.0 8.0 0.00 0.00 0.00 88 1023.5
20211017084817 7 326 8.0 8.0 0.00 0.00 0.00 88 1023.5
20211017084717 7 332 6.4 8.0 0.00 0.00 0.00 88 1023.5
20211017084617 7 323 6.4 8.0 0.00 0.00 0.00 88 1023.5
20211017084517 7 318 6.4 9.7 0.00 0.00 0.00 88 1023.5
20211017084417 7 328 8.0 9.7 0.00 0.00 0.00 87 1023.5
20211017084317 7 331 8.0 8.0 0.00 0.00 0.00 87 1023.5
20211017084217 7 328 6.4 9.7 0.00 0.00 0.00 87 1023.5
20211017084117 7 353 3.2 11.3 0.00 0.00 0.00 87 1023.5
20211017084017 7 339 6.4 9.7 0.00 0.00 0.00 88 1023.5
20211017083917 7 337 4.8 8.0 0.00 0.00 0.00 87 1023.5
20211017083817 7 334 8.0 9.7 0.00 0.00 0.00 88 1023.5
20211017083717 7 325 9.7 11.3 0.00 0.00 0.00 88 1023.5
20211017083617 7 327 6.4 9.7 0.00 0.00 0.00 88 1023.5
20211017083517 7 323 8.0 9.7 0.00 0.00 0.00 88 1023.5
20211017083417 7 325 8.0 11.3 0.00 0.00 0.00 88 1023.5
20211017083317 7 341 4.8 11.3 0.00 0.00 0.00 89 1023.5
20211017083217 7 321 8.0 9.7 0.00 0.00 0.00 89 1023.5
20211017083117 7 335 9.7 9.7 0.00 0.00 0.00 89 1023.5
20211017083017 7 336 8.0 8.0 0.00 0.00 0.00 90 1023.5
20211017082917 7 336 8.0 8.0 0.00 0.00 0.00 90 1023.5
20211017082817 7 334 8.0 8.0 0.00 0.00 0.00 90 1023.5
20211017082717 7 332 8.0 8.0 0.00 0.00 0.00 90 1023.5
20211017082617 7 317 6.4 8.0 0.00 0.00 0.00 90 1023.5
20211017082518 7 332 6.4 8.0 0.00 0.00 0.00 90 1023.5
20211017082418 7 329 6.4 8.0 0.00 0.00 0.00 91 1023.5
20211017082318 7 329 6.4 8.0 0.00 0.00 0.00 91 1023.5
20211017082218 7 330 6.4 8.0 0.00 0.00 0.00 91 1023.5
20211017082118 7 331 6.4 8.0 0.00 0.00 0.00 91 1023.5
20211017082018 7 328 6.4 8.0 0.00 0.00 0.00 91 1023.5
20211017081918 6 340 6.4 8.0 0.00 0.00 0.00 92 1023.4
20211017081818 6 346 3.2 6.4 0.00 0.00 0.00 92 1023.4
20211017081718 6 321 4.8 8.0 0.00 0.00 0.00 92 1023.4
20211017081618 6 328 4.8 8.0 0.00 0.00 0.00 92 1023.4
20211017081518 6 330 6.4 6.4 0.00 0.00 0.00 92 1023.4
20211017081418 6 177 1.6 4.8 0.00 0.00 0.00 93 1023.4
20211017081318 6 350 1.6 6.4 0.00 0.00 0.00 93 1023.4
20211017081218 6 342 4.8 6.4 0.00 0.00 0.00 93 1023.4
20211017081118 6 208 3.2 4.8 0.00 0.00 0.00 93 1023.4
20211017081018 6 187 3.2 4.8 0.00 0.00 0.00 93 1023.4
20211017080918 6 175 1.6 3.2 0.00 0.00 0.00 93 1023.4
20211017080818 6 164 1.6 3.2 0.00 0.00 0.00 93 1023.4
20211017080718 6 183 3.2 4.8 0.00 0.00 0.00 92 1023.4
20211017080618 7 199 3.2 3.2 0.00 0.00 0.00 92 1023.4
20211017080518 7 5 1.6 3.2 0.00 0.00 0.00 92 1023.4
20211017080418 7 192 3.2 4.8 0.00 0.00 0.00 92 1023.4
20211017080318 7 182 1.6 4.8 0.00 0.00 0.00 92 1023.4
20211017080218 7 184 3.2 3.2 0.00 0.00 0.00 92 1023.4
20211017080118 7 9 1.6 3.2 0.00 0.00 0.00 92 1023.4
20211017080018 7 352 3.2 4.8 0.00 0.00 0.00 92 1023.4
20211017075918 7 190 3.2 4.8 0.00 0.00 0.00 92 1023.4
20211017075818 7 340 4.8 4.8 0.00 0.00 0.00 92 1023.4
20211017075718 7 179 3.2 3.2 0.00 0.00 0.00 92 1023.4
20211017075618 7 50 1.6 3.2 0.00 0.00 0.00 92 1023.4
20211017075518 7 170 1.6 3.2 0.00 0.00 0.00 92 1023.4
20211017075418 7 42 1.6 4.8 0.00 0.00 0.00 92 1023.4
20211017075318 7 16 1.6 4.8 0.00 0.00 0.00 91 1023.4
20211017075218 7 173 1.6 4.8 0.00 0.00 0.00 91 1023.4
20211017075118 7 327 4.8 4.8 0.00 0.00 0.00 91 1023.4
20211017075018 7 351 4.8 4.8 0.00 0.00 0.00 91 1023.4
20211017074918 7 338 4.8 4.8 0.00 0.00 0.00 91 1023.4
20211017074818 7 353 3.2 4.8 0.00 0.00 0.00 91 1023.4
20211017074718 7 331 3.2 4.8 0.00 0.00 0.00 91 1023.4
20211017074619 7 341 3.2 4.8 0.00 0.00 0.00 91 1023.4
20211017074518 7 173 1.6 4.8 0.00 0.00 0.00 91 1023.4
20211017074418 7 216 4.8 4.8 0.00 0.00 0.00 91 1023.4
20211017074318 7 185 3.2 6.4 0.00 0.00 0.00 91 1023.4
20211017074218 7 331 4.8 6.4 0.00 0.00 0.00 91 1023.4
20211017074118 7 327 4.8 4.8 0.00 0.00 0.00 91 1023.4
20211017074018 7 324 4.8 4.8 0.00 0.00 0.00 91 1023.4
20211017073918 7 324 4.8 4.8 0.00 0.00 0.00 91 1023.4
20211017073818 7 339 4.8 4.8 0.00 0.00 0.00 91 1023.4
20211017073718 7 325 3.2 4.8 0.00 0.00 0.00 91 1023.4
20211017073618 7 325 4.8 4.8 0.00 0.00 0.00 91 1023.4
20211017073518 7 333 4.8 6.4 0.00 0.00 0.00 91 1023.4
20211017073418 7 340 3.2 4.8 0.00 0.00 0.00 90 1023.5
20211017073318 7 176 1.6 4.8 0.00 0.00 0.00 90 1023.5
20211017073218 7 331 4.8 4.8 0.00 0.00 0.00 90 1023.5
20211017073118 7 333 4.8 4.8 0.00 0.00 0.00 90 1023.5
20211017073018 7 341 4.8 4.8 0.00 0.00 0.00 90 1023.4
20211017072918 7 336 4.8 4.8 0.00 0.00 0.00 90 1023.4
20211017072818 7 342 3.2 4.8 0.00 0.00 0.00 90 1023.4
20211017072718 8 319 4.8 4.8 0.00 0.00 0.00 89 1023.4
20211017072618 8 314 4.8 4.8 0.00 0.00 0.00 89 1023.4
20211017072518 8 326 4.8 4.8 0.00 0.00 0.00 89 1023.4
20211017072418 8 324 3.2 4.8 0.00 0.00 0.00 88 1023.4
20211017072318 8 349 1.6 4.8 0.00 0.00 0.00 88 1023.4
20211017072218 8 319 3.2 4.8 0.00 0.00 0.00 88 1023.4
20211017072118 8 319 3.2 6.4 0.00 0.00 0.00 88 1023.4
20211017072018 8 337 4.8 6.4 0.00 0.00 0.00 87 1023.4
20211017071918 8 341 4.8 6.4 0.00 0.00 0.00 88 1023.4
20211017071818 8 342 3.2 4.8 0.00 0.00 0.00 88 1023.4
20211017071718 8 332 4.8 6.4 0.00 0.00 0.00 88 1023.4
20211017071618 8 326 6.4 6.4 0.00 0.00 0.00 88 1023.4
20211017071518 8 331 6.4 6.4 0.00 0.00 0.00 88 1023.4
20211017071418 8 328 6.4 8.0 0.00 0.00 0.00 88 1023.4
20211017071318 8 332 4.8 6.4 0.00 0.00 0.00 88 1023.4
20211017071218 8 324 3.2 4.8 0.00 0.00 0.00 88 1023.4
20211017071118 8 319 4.8 4.8 0.00 0.00 0.00 88 1023.4
20211017071018 8 306 4.8 4.8 0.00 0.00 0.00 88 1023.4
20211017070918 8 302 4.8 6.4 0.00 0.00 0.00 87 1023.4
20211017070818 8 309 4.8 6.4 0.00 0.00 0.00 87 1023.4
20211017070718 8 321 3.2 6.4 0.00 0.00 0.00 86 1023.4
20211017070618 8 329 4.8 4.8 0.00 0.00 0.00 86 1023.4
20211017070518 8 321 3.2 4.8 0.00 0.00 0.00 87 1023.4
20211017070418 8 330 4.8 6.4 0.00 0.00 0.00 87 1023.4
20211017070318 8 333 4.8 6.4 0.00 0.00 0.00 87 1023.4
20211017070218 8 340 4.8 6.4 0.00 0.00 0.00 87 1023.4
20211017070118 8 326 4.8 6.4 0.00 0.00 0.00 87 1023.4
20211017070018 8 312 6.4 8.0 0.00 0.00 0.00 87 1023.4
20211017065918 8 330 6.4 9.7 0.00 0.00 0.00 87 1023.4
20211017065818 8 311 4.8 8.0 0.00 0.00 0.00 87 1023.4
20211017065718 8 327 6.4 8.0 0.00 0.00 0.00 87 1023.5
20211017065618 8 326 6.4 8.0 0.00 0.00 0.00 87 1023.5
20211017065518 8 322 8.0 8.0 0.00 0.00 0.00 87 1023.5
20211017065418 8 312 8.0 8.0 0.00 0.00 0.00 87 1023.5
20211017065318 8 323 6.4 8.0 0.00 0.00 0.00 87 1023.4
20211017065218 8 346 4.8 6.4 0.00 0.00 0.00 87 1023.4
20211017065118 8 357 3.2 4.8 0.00 0.00 0.00 88 1023.4
20211017065018 8 347 3.2 6.4 0.00 0.00 0.00 88 1023.4
20211017064918 8 330 4.8 4.8 0.00 0.00 0.00 88 1023.4
20211017064818 8 332 4.8 4.8 0.00 0.00 0.00 88 1023.4
20211017064718 8 339 3.2 4.8 0.00 0.00 0.00 88 1023.4
20211017064618 8 327 3.2 4.8 0.00 0.00 0.00 88 1023.4
20211017064518 8 342 3.2 3.2 0.00 0.00 0.00 88 1023.4
20211017064418 8 330 3.2 4.8 0.00 0.00 0.00 88 1023.4
20211017064318 8 335 1.6 4.8 0.00 0.00 0.00 87 1023.4
20211017064219 8 331 4.8 6.4 0.00 0.00 0.00 88 1023.4
20211017064118 8 314 4.8 6.4 0.00 0.00 0.00 88 1023.4
20211017064018 8 318 4.8 6.4 0.00 0.00 0.00 88 1023.4
20211017063918 8 329 4.8 8.0 0.00 0.00 0.00 88 1023.4
20211017063818 8 321 4.8 8.0 0.00 0.00 0.00 88 1023.5
20211017063718 8 323 6.4 8.0 0.00 0.00 0.00 88 1023.5
20211017063618 8 335 3.2 6.4 0.00 0.00 0.00 89 1023.5
20211017063518 8 325 3.2 4.8 0.00 0.00 0.00 89 1023.5
20211017063418 8 321 4.8 4.8 0.00 0.00 0.00 90 1023.5
20211017063318 8 323 3.2 4.8 0.00 0.00 0.00 90 1023.5
20211017063218 8 313 3.2 4.8 0.00 0.00 0.00 90 1023.6
20211017063118 8 325 4.8 4.8 0.00 0.00 0.00 90 1023.6
20211017063018 8 331 3.2 4.8 0.00 0.00 0.00 90 1023.6
20211017062918 8 313 3.2 4.8 0.00 0.00 0.00 89 1023.6
20211017062818 8 316 3.2 4.8 0.00 0.00 0.00 88 1023.6
20211017062718 8 310 3.2 4.8 0.00 0.00 0.00 89 1023.6
20211017062618 8 322 4.8 4.8 0.00 0.00 0.00 89 1023.6
20211017062518 8 310 4.8 4.8 0.00 0.00 0.00 89 1023.6
20211017062418 8 320 3.2 4.8 0.00 0.00 0.00 88 1023.6
20211017062318 8 336 4.8 4.8 0.00 0.00 0.00 88 1023.6
20211017062218 8 308 1.6 4.8 0.00 0.00 0.00 89 1023.5
20211017062118 8 326 4.8 4.8 0.00 0.00 0.00 89 1023.5
20211017062018 8 340 3.2 4.8 0.00 0.00 0.00 88 1023.5
20211017061918 8 345 3.2 4.8 0.00 0.00 0.00 88 1023.4
20211017061818 8 350 4.8 4.8 0.00 0.00 0.00 88 1023.4
20211017061718 8 352 3.2 4.8 0.00 0.00 0.00 88 1023.4
20211017061618 8 348 4.8 4.8 0.00 0.00 0.00 88 1023.4
20211017061518 8 353 3.2 4.8 0.00 0.00 0.00 88 1023.4
20211017061418 8 356 1.6 4.8 0.00 0.00 0.00 87 1023.4
20211017061318 8 358 3.2 4.8 0.00 0.00 0.00 87 1023.4
20211017061218 8 334 4.8 4.8 0.00 0.00 0.00 87 1023.4
20211017061118 8 4 1.6 3.2 0.00 0.00 0.00 87 1023.4
20211017061018 8 1 1.6 3.2 0.00 0.00 0.00 87 1023.4
20211017060918 8 6 1.6 3.2 0.00 0.00 0.00 86 1023.4
20211017060818 8 10 1.6 3.2 0.00 0.00 0.00 86 1023.4
20211017060718 8 14 1.6 3.2 0.00 0.00 0.00 85 1023.4
20211017060618 8 36 3.2 4.8 0.00 0.00 0.00 85 1023.4
20211017060518 8 334 4.8 4.8 0.00 0.00 0.00 85 1023.4
20211017060418 8 341 4.8 6.4 0.00 0.00 0.00 85 1023.4
20211017060320 8 325 4.8 6.4 0.00 0.00 0.00 85 1023.4
20211017060218 8 325 4.8 4.8 0.00 0.00 0.00 86 1023.4
20211017060118 8 343 1.6 3.2 0.00 0.00 0.00 86 1023.4
20211017060018 8 339 3.2 3.2 0.00 0.00 0.00 87 1023.4
20211017055918 8 354 1.6 4.8 0.00 0.00 0.00 89 1023.4
20211017055818 8 341 3.2 3.2 0.00 0.00 0.00 89 1023.3
20211017055718 8 321 3.2 3.2 0.00 0.00 0.00 89 1023.3
20211017055618 8 276 0.0 3.2 0.00 0.00 0.00 89 1023.3
20211017055518 8 220 1.6 3.2 0.00 0.00 0.00 89 1023.3
20211017055418 8 212 0.0 3.2 0.00 0.00 0.00 89 1023.3
20211017055318 8 322 3.2 3.2 0.00 0.00 0.00 88 1023.3
20211017055218 8 339 3.2 3.2 0.00 0.00 0.00 88 1023.3
20211017055118 8 320 3.2 3.2 0.00 0.00 0.00 88 1023.2
20211017055018 8 331 1.6 4.8 0.00 0.00 0.00 88 1023.2
20211017054918 8 333 3.2 4.8 0.00 0.00 0.00 87 1023.2
20211017054818 8 346 3.2 4.8 0.00 0.00 0.00 87 1023.2
20211017054718 8 319 3.2 3.2 0.00 0.00 0.00 86 1023.2
20211017054618 8 306 1.6 3.2 0.00 0.00 0.00 86 1023.1
20211017054518 8 308 3.2 4.8 0.00 0.00 0.00 85 1023.1
20211017054418 8 332 4.8 4.8 0.00 0.00 0.00 85 1023.1
20211017054318 8 313 4.8 4.8 0.00 0.00 0.00 86 1023.1
20211017054218 8 346 3.2 3.2 0.00 0.00 0.00 87 1023.1
20211017054118 8 321 0.0 3.2 0.00 0.00 0.00 87 1023.1
20211017053918 8 355 0.0 3.2 0.00 0.00 0.00 87 1023.1
20211017053818 8 22 3.2 4.8 0.00 0.00 0.00 87 1023.1
20211017053718 8 337 3.2 4.8 0.00 0.00 0.00 87 1023.1
20211017053618 8 2 1.6 3.2 0.00 0.00 0.00 87 1023.1
20211017053518 8 345 3.2 3.2 0.00 0.00 0.00 87 1023.1
20211017053418 8 329 1.6 3.2 0.00 0.00 0.00 87 1023.1
20211017053318 8 324 1.6 3.2 0.00 0.00 0.00 87 1023.1
20211017053218 8 318 0.0 3.2 0.00 0.00 0.00 86 1023.1
20211017053118 8 335 1.6 3.2 0.00 0.00 0.00 86 1023.1
20211017053018 8 315 1.6 1.6 0.00 0.00 0.00 86 1023.1
20211017052918 8 321 0.0 1.6 0.00 0.00 0.00 86 1023.1
20211017052818 8 124 0.0 1.6 0.00 0.00 0.00 86 1023.1
20211017052718 8 290 0.0 1.6 0.00 0.00 0.00 86 1023.0
20211017052618 8 190 0.0 3.2 0.00 0.00 0.00 85 1023.0
20211017052518 9 317 3.2 4.8 0.00 0.00 0.00 85 1023.0
20211017052418 9 314 0.0 3.2 0.00 0.00 0.00 85 1023.0
20211017052318 9 303 0.0 3.2 0.00 0.00 0.00 85 1023.0
20211017052218 9 320 3.2 4.8 0.00 0.00 0.00 85 1023.0
20211017052118 9 358 1.6 4.8 0.00 0.00 0.00 85 1023.0
20211017052018 9 319 1.6 4.8 0.00 0.00 0.00 85 1023.1
20211017051918 9 43 3.2 4.8 0.00 0.00 0.00 85 1023.1
20211017051818 9 320 3.2 4.8 0.00 0.00 0.00 84 1023.1
20211017051718 9 348 3.2 3.2 0.00 0.00 0.00 84 1023.1
20211017051618 9 316 1.6 3.2 0.00 0.00 0.00 84 1023.1
20211017051518 9 314 3.2 3.2 0.00 0.00 0.00 84 1023.1
20211017051418 9 317 0.0 4.8 0.00 0.00 0.00 84 1023.1
20211017051318 9 324 3.2 4.8 0.00 0.00 0.00 84 1023.1
20211017051218 9 324 3.2 4.8 0.00 0.00 0.00 84 1023.1
20211017051118 9 333 3.2 6.4 0.00 0.00 0.00 84 1023.1
20211017051018 9 344 3.2 6.4 0.00 0.00 0.00 84 1023.1
20211017050918 9 316 3.2 4.8 0.00 0.00 0.00 84 1023.1
20211017050818 9 299 0.0 6.4 0.00 0.00 0.00 84 1023.1
20211017050718 9 297 1.6 3.2 0.00 0.00 0.00 84 1023.1
20211017050618 9 328 1.6 3.2 0.00 0.00 0.00 83 1023.1
20211017050518 9 336 1.6 3.2 0.00 0.00 0.00 83 1023.1
20211017050418 9 339 1.6 4.8 0.00 0.00 0.00 83 1023.1
20211017050318 9 334 1.6 6.4 0.00 0.00 0.00 83 1023.1
20211017050218 9 323 4.8 6.4 0.00 0.00 0.00 83 1023.1
20211017050118 9 337 3.2 6.4 0.00 0.00 0.00 83 1023.1
20211017050018 9 311 6.4 6.4 0.00 0.00 0.00 83 1023.1
20211017045918 9 332 1.6 3.2 0.00 0.00 0.00 83 1023.1
20211017045818 9 235 1.6 3.2 0.00 0.00 0.00 83 1023.1
20211017045718 9 211 0.0 3.2 0.00 0.00 0.00 83 1023.1
20211017045618 9 311 1.6 6.4 0.00 0.00 0.00 83 1023.1
20211017045518 9 308 4.8 4.8 0.00 0.00 0.00 83 1023.1
20211017045418 9 310 4.8 4.8 0.00 0.00 0.00 83 1023.1
20211017045318 9 314 4.8 4.8 0.00 0.00 0.00 83 1023.1
20211017045218 9 329 3.2 6.4 0.00 0.00 0.00 83 1023.1
20211017045118 9 303 3.2 6.4 0.00 0.00 0.00 83 1023.1
20211017045018 9 335 4.8 8.0 0.00 0.00 0.00 83 1023.0
20211017044918 9 322 6.4 8.0 0.00 0.00 0.00 83 1023.0
20211017044818 10 311 3.2 4.8 0.00 0.00 0.00 82 1023.0
20211017044718 10 326 4.8 4.8 0.00 0.00 0.00 82 1023.1
20211017044618 10 315 1.6 4.8 0.00 0.00 0.00 82 1023.1
20211017044518 10 317 3.2 4.8 0.00 0.00 0.00 82 1023.1
20211017044418 10 295 0.0 3.2 0.00 0.00 0.00 82 1023.1
20211017044318 10 321 1.6 4.8 0.00 0.00 0.00 82 1023.1
20211017044218 10 297 3.2 4.8 0.00 0.00 0.00 82 1023.2
20211017044118 10 55 1.6 3.2 0.00 0.00 0.00 82 1023.2
20211017044018 10 205 0.0 1.6 0.00 0.00 0.00 82 1023.2
20211017043918 10 27 1.6 1.6 0.00 0.00 0.00 82 1023.2
20211017043818 10 290 0.0 3.2 0.00 0.00 0.00 82 1023.2
20211017043718 10 288 0.0 3.2 0.00 0.00 0.00 82 1023.2
20211017043618 10 320 1.6 4.8 0.00 0.00 0.00 82 1023.2
20211017043518 10 324 1.6 4.8 0.00 0.00 0.00 82 1023.2
20211017043418 10 325 3.2 4.8 0.00 0.00 0.00 82 1023.2
20211017043318 10 345 3.2 3.2 0.00 0.00 0.00 82 1023.1
20211017043218 10 202 0.0 1.6 0.00 0.00 0.00 82 1023.1
20211017043118 10 206 0.0 3.2 0.00 0.00 0.00 82 1023.1
20211017042918 10 257 3.2 3.2 0.00 0.00 0.00 82 1023.1
20211017042818 10 279 1.6 3.2 0.00 0.00 0.00 82 1023.1
20211017042718 10 188 3.2 3.2 0.00 0.00 0.00 82 1023.1
20211017042618 10 303 0.0 1.6 0.00 0.00 0.00 82 1023.0
20211017042518 10 268 0.0 1.6 0.00 0.00 0.00 82 1023.0
20211017042418 10 247 0.0 1.6 0.00 0.00 0.00 81 1023.0
20211017042318 10 245 0.0 4.8 0.00 0.00 0.00 81 1023.0
20211017042218 10 209 1.6 3.2 0.00 0.00 0.00 81 1023.0
20211017042118 10 215 1.6 3.2 0.00 0.00 0.00 81 1023.0
20211017042018 10 191 1.6 3.2 0.00 0.00 0.00 80 1023.0
20211017041918 10 37 0.0 3.2 0.00 0.00 0.00 80 1023.0
20211017041818 10 237 3.2 3.2 0.00 0.00 0.00 80 1023.0
20211017041718 10 268 0.0 1.6 0.00 0.00 0.00 80 1023.0
20211017041618 10 211 1.6 3.2 0.00 0.00 0.00 80 1023.0
20211017041518 10 60 3.2 3.2 0.00 0.00 0.00 80 1023.0
20211017041418 10 20 0.0 1.6 0.00 0.00 0.00 80 1023.0
20211017041318 10 333 0.0 1.6 0.00 0.00 0.00 80 1023.0
20211017041218 10 229 1.6 3.2 0.00 0.00 0.00 81 1023.0
20211017041118 10 203 1.6 4.8 0.00 0.00 0.00 80 1023.0
20211017041018 10 244 0.0 1.6 0.00 0.00 0.00 80 1023.0
20211017040918 10 134 1.6 3.2 0.00 0.00 0.00 80 1023.0
20211017040818 10 133 1.6 3.2 0.00 0.00 0.00 80 1023.0
20211017040718 10 231 3.2 4.8 0.00 0.00 0.00 80 1023.0
20211017040618 10 179 3.2 3.2 0.00 0.00 0.00 80 1023.0
20211017040518 10 235 1.6 3.2 0.00 0.00 0.00 80 1023.0
20211017040418 10 250 1.6 3.2 0.00 0.00 0.00 80 1023.0
20211017040318 10 246 1.6 3.2 0.00 0.00 0.00 81 1023.0
20211017040218 10 183 1.6 1.6 0.00 0.00 0.00 81 1023.0
20211017040118 10 149 1.6 1.6 0.00 0.00 0.00 81 1023.0
20211017040018 10 150 1.6 3.2 0.00 0.00 0.00 80 1023.0
20211017035918 10 234 0.0 3.2 0.00 0.00 0.00 80 1023.0
20211017035818 10 90 1.6 3.2 0.00 0.00 0.00 80 1023.0
20211017035718 10 186 1.6 3.2 0.00 0.00 0.00 80 1023.0
20211017035618 10 127 0.0 3.2 0.00 0.00 0.00 80 1023.0
20211017035518 10 128 0.0 3.2 0.00 0.00 0.00 80 1023.0
20211017035418 10 131 1.6 1.6 0.00 0.00 0.00 80 1022.9
20211017035318 10 142 1.6 1.6 0.00 0.00 0.00 80 1022.9
20211017035218 10 215 1.6 1.6 0.00 0.00 0.00 80 1022.9
20211017035118 10 135 1.6 3.2 0.00 0.00 0.00 80 1022.9
20211017035018 10 128 1.6 3.2 0.00 0.00 0.00 80 1022.9
20211017034918 10 126 1.6 3.2 0.00 0.00 0.00 80 1022.9
20211017034818 10 172 3.2 3.2 0.00 0.00 0.00 79 1022.9
20211017034718 10 150 1.6 1.6 0.00 0.00 0.00 78 1022.9
20211017034618 10 130 1.6 3.2 0.00 0.00 0.00 78 1022.9
20211017034518 10 232 3.2 3.2 0.00 0.00 0.00 78 1022.9
20211017034418 10 129 1.6 3.2 0.00 0.00 0.00 78 1022.9
20211017034318 10 239 1.6 3.2 0.00 0.00 0.00 78 1022.9
20211017034218 10 246 1.6 4.8 0.00 0.00 0.00 78 1022.9
20211017034118 11 233 1.6 3.2 0.00 0.00 0.00 77 1022.9
20211017034018 11 247 1.6 3.2 0.00 0.00 0.00 77 1022.9
20211017033918 11 245 1.6 3.2 0.00 0.00 0.00 77 1022.9
20211017033818 11 133 1.6 4.8 0.00 0.00 0.00 77 1022.9
20211017033718 11 142 1.6 3.2 0.00 0.00 0.00 76 1022.9
20211017033618 11 150 1.6 3.2 0.00 0.00 0.00 76 1022.9
20211017033518 11 238 1.6 3.2 0.00 0.00 0.00 75 1022.9
20211017033418 11 236 3.2 3.2 0.00 0.00 0.00 75 1022.9
20211017033318 11 150 1.6 3.2 0.00 0.00 0.00 75 1022.9
20211017033218 11 260 0.0 3.2 0.00 0.00 0.00 74 1022.9
20211017033118 11 243 1.6 3.2 0.00 0.00 0.00 75 1022.9
20211017033018 11 244 1.6 1.6 0.00 0.00 0.00 75 1022.9
20211017032918 11 215 1.6 3.2 0.00 0.00 0.00 75 1022.9
20211017032818 11 259 0.0 3.2 0.00 0.00 0.00 75 1022.9
20211017032718 11 220 1.6 3.2 0.00 0.00 0.00 75 1022.9
20211017032618 11 255 1.6 1.6 0.00 0.00 0.00 75 1022.9
20211017032518 11 222 1.6 3.2 0.00 0.00 0.00 74 1022.9
20211017032418 11 243 1.6 3.2 0.00 0.00 0.00 74 1022.9
20211017032318 11 263 1.6 3.2 0.00 0.00 0.00 74 1022.9
20211017032218 11 329 3.2 3.2 0.00 0.00 0.00 74 1022.9
20211017032118 11 109 0.0 3.2 0.00 0.00 0.00 74 1022.9
20211017032018 11 250 0.0 4.8 0.00 0.00 0.00 74 1022.9
20211017031918 11 299 1.6 4.8 0.00 0.00 0.00 74 1022.9
20211017031818 11 2 1.6 3.2 0.00 0.00 0.00 74 1022.9
20211017031718 11 351 1.6 3.2 0.00 0.00 0.00 74 1022.9
20211017031618 11 254 0.0 3.2 0.00 0.00 0.00 74 1022.9
20211017031518 11 359 1.6 3.2 0.00 0.00 0.00 74 1022.9
20211017031418 11 355 1.6 4.8 0.00 0.00 0.00 74 1022.9
20211017031318 11 339 0.0 1.6 0.00 0.00 0.00 74 1022.9
20211017031218 11 142 1.6 1.6 0.00 0.00 0.00 74 1022.9
20211017031118 11 217 1.6 3.2 0.00 0.00 0.00 74 1022.9
20211017031018 11 32 1.6 3.2 0.00 0.00 0.00 73 1022.9
20211017030918 11 313 3.2 3.2 0.00 0.00 0.00 73 1022.9
20211017030818 11 122 1.6 3.2 0.00 0.00 0.00 73 1022.9
20211017030718 11 327 1.6 3.2 0.00 0.00 0.00 73 1022.8
20211017030618 11 15 1.6 3.2 0.00 0.00 0.00 73 1022.8
20211017030518 11 7 3.2 3.2 0.00 0.00 0.00 73 1022.8
20211017030418 11 324 1.6 3.2 0.00 0.00 0.00 73 1022.8
20211017030318 11 318 3.2 3.2 0.00 0.00 0.00 73 1022.8
20211017030218 11 354 1.6 3.2 0.00 0.00 0.00 73 1022.8
20211017030118 11 307 1.6 3.2 0.00 0.00 0.00 73 1022.8
20211017030018 11 316 3.2 3.2 0.00 0.00 0.00 73 1022.8
20211017025918 11 340 0.0 3.2 0.00 0.00 0.00 73 1022.8
20211017025818 11 325 3.2 4.8 0.00 0.00 0.00 72 1022.8
20211017025718 11 332 3.2 3.2 0.00 0.00 0.00 72 1022.8
20211017025618 11 312 3.2 4.8 0.00 0.00 0.00 72 1022.8
20211017025518 11 267 1.6 6.4 0.00 0.00 0.00 72 1022.8
20211017025418 11 345 1.6 4.8 0.00 0.00 0.00 72 1022.8
20211017025318 11 349 0.0 4.8 0.00 0.00 0.00 72 1022.8
20211017025218 11 319 1.6 3.2 0.00 0.00 0.00 72 1022.8
20211017025118 11 324 3.2 4.8 0.00 0.00 0.00 71 1022.8
20211017025018 11 323 3.2 6.4 0.00 0.00 0.00 71 1022.8
20211017024918 11 329 4.8 6.4 0.00 0.00 0.00 71 1022.8
20211017024818 11 325 3.2 4.8 0.00 0.00 0.00 71 1022.8
20211017024718 11 294 4.8 6.4 0.00 0.00 0.00 71 1022.8
20211017024618 11 318 4.8 6.4 0.00 0.00 0.00 71 1022.8
20211017024518 11 324 3.2 8.0 0.00 0.00 0.00 71 1022.8
20211017024418 11 329 3.2 6.4 0.00 0.00 0.00 71 1022.8
20211017024318 12 300 6.4 6.4 0.00 0.00 0.00 71 1022.8
20211017024218 12 324 4.8 4.8 0.00 0.00 0.00 71 1022.8
20211017024118 12 296 3.2 4.8 0.00 0.00 0.00 71 1022.8
20211017024018 12 301 4.8 4.8 0.00 0.00 0.00 71 1022.8
20211017023918 12 328 3.2 4.8 0.00 0.00 0.00 71 1022.8
20211017023818 12 321 3.2 6.4 0.00 0.00 0.00 71 1022.8
20211017023718 12 323 3.2 4.8 0.00 0.00 0.00 70 1022.8
20211017023618 12 312 3.2 8.0 0.00 0.00 0.00 70 1022.7
20211017023518 12 328 4.8 6.4 0.00 0.00 0.00 70 1022.7
20211017023418 12 315 3.2 6.4 0.00 0.00 0.00 71 1022.7
20211017023318 12 313 1.6 4.8 0.00 0.00 0.00 71 1022.7
20211017023218 12 324 4.8 6.4 0.00 0.00 0.00 71 1022.7
20211017023118 12 303 6.4 6.4 0.00 0.00 0.00 70 1022.7
20211017023018 12 320 4.8 4.8 0.00 0.00 0.00 70 1022.7
20211017022918 12 295 3.2 6.4 0.00 0.00 0.00 70 1022.7
20211017022818 12 322 4.8 6.4 0.00 0.00 0.00 70 1022.7
20211017022718 12 317 4.8 6.4 0.00 0.00 0.00 70 1022.7
20211017022618 12 327 4.8 4.8 0.00 0.00 0.00 70 1022.7
20211017022518 12 321 3.2 4.8 0.00 0.00 0.00 70 1022.7
20211017022418 12 317 3.2 4.8 0.00 0.00 0.00 70 1022.7
20211017022318 12 13 0.0 4.8 0.00 0.00 0.00 70 1022.7
20211017022218 12 277 3.2 4.8 0.00 0.00 0.00 71 1022.7
20211017022118 12 338 1.6 4.8 0.00 0.00 0.00 71 1022.7
20211017022018 12 326 4.8 4.8 0.00 0.00 0.00 70 1022.6
20211017021918 12 351 1.6 4.8 0.00 0.00 0.00 70 1022.6
20211017021818 12 311 1.6 4.8 0.00 0.00 0.00 70 1022.6
20211017021718 12 333 4.8 4.8 0.00 0.00 0.00 70 1022.6
20211017021618 12 331 1.6 4.8 0.00 0.00 0.00 70 1022.6
20211017021518 12 323 4.8 6.4 0.00 0.00 0.00 70 1022.6
20211017021418 12 344 4.8 6.4 0.00 0.00 0.00 69 1022.6
20211017021318 12 310 3.2 4.8 0.00 0.00 0.00 69 1022.6
20211017021218 12 293 3.2 8.0 0.00 0.00 0.00 69 1022.6
20211017021118 12 329 6.4 8.0 0.00 0.00 0.00 69 1022.6
20211017021018 12 324 3.2 4.8 0.00 0.00 0.00 69 1022.6
20211017020918 12 309 3.2 8.0 0.00 0.00 0.00 69 1022.6
20211017020818 12 318 4.8 6.4 0.00 0.00 0.00 69 1022.6
20211017020718 12 325 4.8 6.4 0.00 0.00 0.00 69 1022.6
20211017020618 12 327 4.8 6.4 0.00 0.00 0.00 69 1022.6
20211017020518 12 324 3.2 6.4 0.00 0.00 0.00 68 1022.6
20211017020418 12 304 4.8 4.8 0.00 0.00 0.00 68 1022.6
20211017020318 12 313 3.2 4.8 0.00 0.00 0.00 68 1022.6
20211017020218 12 329 1.6 4.8 0.00 0.00 0.00 68 1022.6
20211017020118 12 314 4.8 4.8 0.00 0.00 0.00 69 1022.6
20211017020018 12 13 0.0 4.8 0.00 0.00 0.00 69 1022.6
20211017015918 12 295 1.6 4.8 0.00 0.00 0.00 69 1022.6
20211017015818 12 325 1.6 4.8 0.00 0.00 0.00 69 1022.6
20211017015718 12 316 3.2 6.4 0.00 0.00 0.00 69 1022.6
20211017015618 12 331 1.6 6.4 0.00 0.00 0.00 69 1022.6
20211017015518 12 324 3.2 4.8 0.00 0.00 0.00 69 1022.5
20211017015418 12 309 3.2 3.2 0.00 0.00 0.00 69 1022.5
20211017015318 12 298 0.0 4.8 0.00 0.00 0.00 69 1022.5
20211017015218 12 314 3.2 6.4 0.00 0.00 0.00 69 1022.5
20211017015118 12 320 3.2 4.8 0.00 0.00 0.00 69 1022.4
20211017015018 12 323 3.2 4.8 0.00 0.00 0.00 69 1022.4
20211017014918 12 321 3.2 4.8 0.00 0.00 0.00 69 1022.4
20211017014818 12 313 4.8 6.4 0.00 0.00 0.00 68 1022.4
20211017014718 12 314 1.6 6.4 0.00 0.00 0.00 68 1022.4
20211017014618 12 298 1.6 9.7 0.00 0.00 0.00 68 1022.4
20211017014518 12 305 8.0 9.7 0.00 0.00 0.00 68 1022.4
20211017014418 12 325 9.7 9.7 0.00 0.00 0.00 68 1022.4
20211017014318 12 301 6.4 8.0 0.00 0.00 0.00 68 1022.3
20211017014218 12 315 3.2 8.0 0.00 0.00 0.00 68 1022.3
20211017014118 12 308 8.0 8.0 0.00 0.00 0.00 68 1022.3
20211017014018 12 308 8.0 8.0 0.00 0.00 0.00 68 1022.3
20211017013918 12 332 4.8 6.4 0.00 0.00 0.00 68 1022.3
20211017013818 12 322 4.8 6.4 0.00 0.00 0.00 68 1022.3
20211017013718 12 9 0.0 6.4 0.00 0.00 0.00 68 1022.3
20211017013618 12 48 1.6 4.8 0.00 0.00 0.00 68 1022.3
20211017013518 12 312 3.2 6.4 0.00 0.00 0.00 68 1022.3
20211017013418 12 7 1.6 6.4 0.00 0.00 0.00 68 1022.3
20211017013318 12 303 3.2 9.7 0.00 0.00 0.00 68 1022.3
20211017013218 12 313 4.8 6.4 0.00 0.00 0.00 68 1022.2
20211017013118 12 318 4.8 6.4 0.00 0.00 0.00 68 1022.2
20211017013018 12 325 4.8 6.4 0.00 0.00 0.00 68 1022.2
20211017012918 12 311 4.8 8.0 0.00 0.00 0.00 68 1022.2
20211017012818 12 357 3.2 6.4 0.00 0.00 0.00 68 1022.2
20211017012718 12 310 4.8 8.0 0.00 0.00 0.00 68 1022.2
20211017012618 12 308 6.4 8.0 0.00 0.00 0.00 68 1022.2
20211017012518 12 321 4.8 6.4 0.00 0.00 0.00 67 1022.2
20211017012418 12 307 6.4 8.0 0.00 0.00 0.00 67 1022.2
20211017012318 12 318 4.8 6.4 0.00 0.00 0.00 67 1022.2
20211017012218 12 312 3.2 4.8 0.00 0.00 0.00 67 1022.2
20211017012118 12 318 3.2 4.8 0.00 0.00 0.00 67 1022.2
20211017012018 12 321 4.8 4.8 0.00 0.00 0.00 67 1022.2
20211017011918 12 301 3.2 6.4 0.00 0.00 0.00 67 1022.2
20211017011818 12 305 4.8 4.8 0.00 0.00 0.00 67 1022.2
20211017011718 12 329 4.8 6.4 0.00 0.00 0.00 67 1022.1
20211017011618 12 42 3.2 6.4 0.00 0.00 0.00 67 1022.1
20211017011518 12 333 1.6 4.8 0.00 0.00 0.00 67 1022.1
20211017011418 12 14 1.6 4.8 0.00 0.00 0.00 66 1022.1
20211017011318 12 13 3.2 3.2 0.00 0.00 0.00 66 1022.0
20211017011218 12 348 1.6 4.8 0.00 0.00 0.00 66 1022.0
20211017011118 13 324 4.8 6.4 0.00 0.00 0.00 66 1022.0
20211017011018 13 297 3.2 4.8 0.00 0.00 0.00 66 1022.0
20211017010918 13 332 3.2 4.8 0.00 0.00 0.00 66 1022.0
20211017010818 13 311 0.0 8.0 0.00 0.00 0.00 65 1022.0
20211017010718 13 319 3.2 6.4 0.00 0.00 0.00 65 1022.0
20211017010618 13 322 3.2 4.8 0.00 0.00 0.00 65 1022.0
20211017010518 13 312 4.8 6.4 0.00 0.00 0.00 65 1022.0
20211017010418 13 303 4.8 8.0 0.00 0.00 0.00 65 1021.9
20211017010318 13 296 3.2 8.0 0.00 0.00 0.00 65 1021.9
20211017010218 13 317 6.4 6.4 0.00 0.00 0.00 65 1021.9
20211017010118 13 313 1.6 6.4 0.00 0.00 0.00 65 1021.9
20211017010018 13 320 6.4 6.4 0.00 0.00 0.00 65 1021.9
20211017005918 13 294 4.8 4.8 0.00 0.00 0.00 65 1021.9
20211017005818 13 315 3.2 4.8 0.00 0.00 0.00 64 1021.9
20211017005718 13 337 3.2 4.8 0.00 0.00 0.00 64 1021.9
20211017005618 13 323 4.8 4.8 0.00 0.00 0.00 65 1021.9
20211017005518 13 304 1.6 3.2 0.00 0.00 0.00 64 1021.9
20211017005418 13 310 3.2 4.8 0.00 0.00 0.00 64 1021.9
20211017005318 13 327 4.8 4.8 0.00 0.00 0.00 64 1021.9
20211017005218 13 297 3.2 3.2 0.00 0.00 0.00 64 1021.9
20211017005118 13 331 1.6 4.8 0.00 0.00 0.00 64 1021.9
20211017005018 13 345 0.0 3.2 0.00 0.00 0.00 64 1021.9
20211017004918 13 292 1.6 4.8 0.00 0.00 0.00 64 1021.9
20211017004818 13 77 1.6 4.8 0.00 0.00 0.00 64 1021.9
20211017004718 13 313 4.8 4.8 0.00 0.00 0.00 64 1021.9
20211017004618 13 297 1.6 6.4 0.00 0.00 0.00 64 1021.9
20211017004518 13 323 4.8 4.8 0.00 0.00 0.00 64 1021.9
20211017004418 13 318 3.2 4.8 0.00 0.00 0.00 64 1021.8
20211017004318 13 287 1.6 6.4 0.00 0.00 0.00 64 1021.8
20211017004218 13 304 1.6 4.8 0.00 0.00 0.00 64 1021.8
20211017004118 13 325 1.6 3.2 0.00 0.00 0.00 63 1021.7
20211017004018 13 323 3.2 4.8 0.00 0.00 0.00 63 1021.7
20211017003918 13 320 3.2 3.2 0.00 0.00 0.00 63 1021.7
20211017003818 13 310 1.6 4.8 0.00 0.00 0.00 63 1021.7
20211017003718 13 302 3.2 3.2 0.00 0.00 0.00 63 1021.7
20211017003618 13 28 0.0 1.6 0.00 0.00 0.00 63 1021.7
20211017003518 13 251 0.0 3.2 0.00 0.00 0.00 63 1021.7
20211017003418 13 321 3.2 3.2 0.00 0.00 0.00 63 1021.7
20211017003318 13 25 0.0 0.0 0.00 0.00 0.00 63 1021.7
20211017003218 13 176 0.0 1.6 0.00 0.00 0.00 62 1021.7
20211017003118 13 210 1.6 3.2 0.00 0.00 0.00 62 1021.7
20211017003018 13 323 0.0 1.6 0.00 0.00 0.00 62 1021.8
20211017002918 13 325 1.6 3.2 0.00 0.00 0.00 62 1021.8
20211017002818 13 312 0.0 3.2 0.00 0.00 0.00 62 1021.8
20211017002718 13 1 1.6 3.2 0.00 0.00 0.00 62 1021.8
20211017002618 13 85 0.0 1.6 0.00 0.00 0.00 62 1021.8
20211017002518 13 239 0.0 1.6 0.00 0.00 0.00 62 1021.8
20211017002418 13 281 0.0 3.2 0.00 0.00 0.00 62 1021.8
20211017002318 13 177 3.2 3.2 0.00 0.00 0.00 62 1021.8
20211017002218 13 3 3.2 4.8 0.00 0.00 0.00 61 1021.7
20211017002118 13 284 1.6 4.8 0.00 0.00 0.00 61 1021.7
20211017002018 13 298 1.6 4.8 0.00 0.00 0.00 61 1021.7
20211017001918 13 300 1.6 4.8 0.00 0.00 0.00 61 1021.7
20211017001818 13 334 4.8 4.8 0.00 0.00 0.00 62 1021.7
20211017001718 13 273 1.6 3.2 0.00 0.00 0.00 61 1021.7
20211017001618 13 250 1.6 4.8 0.00 0.00 0.00 62 1021.7
20211017001518 13 337 4.8 4.8 0.00 0.00 0.00 62 1021.7
20211017001418 13 292 0.0 3.2 0.00 0.00 0.00 62 1021.7
20211017001318 13 341 0.0 3.2 0.00 0.00 0.00 62 1021.7
20211017001218 13 41 3.2 6.4 0.00 0.00 0.00 62 1021.7
20211017001118 14 188 3.2 4.8 0.00 0.00 0.00 62 1021.7
20211017001018 14 285 1.6 3.2 0.00 0.00 0.00 61 1021.7
20211017000918 14 304 1.6 1.6 0.00 0.00 0.00 61 1021.7
20211017000818 14 238 1.6 3.2 0.00 0.00 0.00 61 1021.7
20211017000718 14 130 1.6 3.2 0.00 0.00 0.00 61 1021.7
20211017000618 14 336 1.6 4.8 0.00 0.00 0.00 61 1021.6
20211017000518 14 294 1.6 3.2 0.00 0.00 0.00 61 1021.6
20211017000418 14 49 1.6 3.2 0.00 0.00 0.00 61 1021.6
20211017000319 14 270 1.6 3.2 0.00 0.00 0.00 61 1021.6
20211017000218 14 24 3.2 3.2 0.00 0.00 0.00 61 1021.6
20211017000118 14 311 0.0 4.8 0.00 0.00 0.00 61 1021.6
20211017000018 14 89 1.6 4.8 0.00 0.00 0.00 61 1021.6
20211016235918 14 130 1.6 4.8 0.00 0.00 0.00 61 1021.6
20211016235818 14 143 1.6 4.8 0.00 0.00 0.00 61 1021.6
20211016235718 14 204 4.8 4.8 0.00 0.00 0.00 60 1021.6
20211016235618 14 161 1.6 4.8 0.00 0.00 0.00 61 1021.6
20211016235518 14 147 1.6 4.8 0.00 0.00 0.00 60 1021.6
20211016235418 14 131 1.6 4.8 0.00 0.00 0.00 60 1021.6
20211016235318 15 144 4.8 4.8 0.00 0.00 0.00 60 1021.6
20211016235218 15 178 3.2 4.8 0.00 0.00 0.00 59 1021.5
20211016235118 15 142 3.2 4.8 0.00 0.00 0.00 59 1021.5
20211016235018 15 205 3.2 4.8 0.00 0.00 0.00 59 1021.5
20211016234918 15 121 1.6 4.8 0.00 0.00 0.00 59 1021.5
20211016234818 15 270 1.6 4.8 0.00 0.00 0.00 59 1021.5
20211016234718 15 124 3.2 4.8 0.00 0.00 0.00 59 1021.5
20211016234618 15 129 1.6 4.8 0.00 0.00 0.00 59 1021.5
20211016234518 15 234 3.2 3.2 0.00 0.00 0.00 58 1021.4
20211016234418 15 218 1.6 3.2 0.00 0.00 0.00 58 1021.4
20211016234318 15 224 3.2 4.8 0.00 0.00 0.00 58 1021.4
20211016234218 15 213 3.2 3.2 0.00 0.00 0.00 58 1021.4
20211016234118 15 248 1.6 3.2 0.00 0.00 0.00 58 1021.4
20211016234018 15 137 1.6 3.2 0.00 0.00 0.00 57 1021.4
20211016233918 15 21 1.6 4.8 0.00 0.00 0.00 57 1021.4
20211016233818 15 220 3.2 4.8 0.00 0.00 0.00 58 1021.4
20211016233718 15 117 3.2 4.8 0.00 0.00 0.00 57 1021.4
20211016233618 15 146 1.6 4.8 0.00 0.00 0.00 57 1021.4
20211016233518 15 182 3.2 4.8 0.00 0.00 0.00 57 1021.4
20211016233418 15 127 1.6 3.2 0.00 0.00 0.00 56 1021.4
20211016233318 15 236 1.6 4.8 0.00 0.00 0.00 56 1021.4
20211016233218 15 235 1.6 3.2 0.00 0.00 0.00 56 1021.4
20211016233118 15 229 1.6 4.8 0.00 0.00 0.00 56 1021.4
20211016233018 15 5 1.6 4.8 0.00 0.00 0.00 56 1021.4
20211016232918 15 128 1.6 6.4 0.00 0.00 0.00 55 1021.4
20211016232818 15 202 3.2 3.2 0.00 0.00 0.00 55 1021.4
20211016232718 15 6 1.6 4.8 0.00 0.00 0.00 55 1021.4
20211016232618 15 221 4.8 6.4 0.00 0.00 0.00 55 1021.4
20211016232518 15 213 4.8 6.4 0.00 0.00 0.00 55 1021.4
20211016232418 15 251 3.2 6.4 0.00 0.00 0.00 55 1021.4
20211016232318 15 233 3.2 6.4 0.00 0.00 0.00 54 1021.4
20211016232218 15 356 1.6 3.2 0.00 0.00 0.00 54 1021.4
20211016232118 15 359 1.6 4.8 0.00 0.00 0.00 54 1021.3
20211016232018 15 272 3.2 4.8 0.00 0.00 0.00 54 1021.3
20211016231918 15 214 4.8 4.8 0.00 0.00 0.00 53 1021.3
20211016231818 15 236 1.6 6.4 0.00 0.00 0.00 53 1021.3
20211016231718 15 206 4.8 4.8 0.00 0.00 0.00 53 1021.3
20211016231618 16 239 1.6 4.8 0.00 0.00 0.00 53 1021.3
20211016231518 16 230 4.8 6.4 0.00 0.00 0.00 53 1021.3
20211016231418 16 252 1.6 4.8 0.00 0.00 0.00 53 1021.3
20211016231318 16 224 3.2 4.8 0.00 0.00 0.00 53 1021.3
20211016231218 16 249 3.2 6.4 0.00 0.00 0.00 52 1021.3
20211016231118 16 203 4.8 4.8 0.00 0.00 0.00 52 1021.3
20211016231018 16 258 3.2 6.4 0.00 0.00 0.00 52 1021.3
20211016230918 16 258 3.2 4.8 0.00 0.00 0.00 52 1021.3
20211016230818 16 293 3.2 4.8 0.00 0.00 0.00 52 1021.3
20211016230718 16 248 3.2 4.8 0.00 0.00 0.00 52 1021.3
20211016230618 16 315 1.6 3.2 0.00 0.00 0.00 52 1021.3
20211016230518 16 304 1.6 4.8 0.00 0.00 0.00 52 1021.3
20211016230418 16 259 4.8 6.4 0.00 0.00 0.00 52 1021.3
20211016230318 16 244 4.8 6.4 0.00 0.00 0.00 51 1021.3
20211016230218 16 259 4.8 6.4 0.00 0.00 0.00 51 1021.3
20211016230118 16 317 4.8 8.0 0.00 0.00 0.00 51 1021.3
20211016230018 16 306 0.0 4.8 0.00 0.00 0.00 50 1021.3
20211016225918 16 349 3.2 4.8 0.00 0.00 0.00 50 1021.3
20211016225818 16 314 1.6 4.8 0.00 0.00 0.00 50 1021.3
20211016225718 16 315 1.6 8.0 0.00 0.00 0.00 50 1021.3
20211016225618 16 321 6.4 9.7 0.00 0.00 0.00 50 1021.3
20211016225518 16 311 4.8 6.4 0.00 0.00 0.00 50 1021.3
20211016225418 16 331 6.4 9.7 0.00 0.00 0.00 49 1021.3
20211016225318 16 297 6.4 9.7 0.00 0.00 0.00 49 1021.3
20211016225218 16 4 3.2 8.0 0.00 0.00 0.00 50 1021.3
20211016225118 16 294 6.4 8.0 0.00 0.00 0.00 50 1021.3
20211016225018 16 305 6.4 9.7 0.00 0.00 0.00 49 1021.3
20211016224918 16 308 4.8 6.4 0.00 0.00 0.00 49 1021.3
20211016224818 16 306 4.8 8.0 0.00 0.00 0.00 49 1021.3
20211016224718 16 294 4.8 9.7 0.00 0.00 0.00 49 1021.3
20211016224618 16 309 6.4 11.3 0.00 0.00 0.00 48 1021.3
20211016224518 16 304 6.4 11.3 0.00 0.00 0.00 48 1021.3
20211016224418 16 322 11.3 11.3 0.00 0.00 0.00 48 1021.3
20211016224318 16 310 9.7 12.9 0.00 0.00 0.00 48 1021.3
20211016224218 16 300 6.4 9.7 0.00 0.00 0.00 48 1021.3
20211016224118 16 321 9.7 11.3 0.00 0.00 0.00 47 1021.3
20211016224018 16 300 11.3 14.5 0.00 0.00 0.00 47 1021.3
20211016223918 16 308 4.8 14.5 0.00 0.00 0.00 47 1021.3
20211016223818 16 314 14.5 14.5 0.00 0.00 0.00 47 1021.2
20211016223718 16 316 6.4 14.5 0.00 0.00 0.00 47 1021.2
20211016223618 16 321 6.4 9.7 0.00 0.00 0.00 47 1021.2
20211016223518 16 298 6.4 11.3 0.00 0.00 0.00 46 1021.2
20211016223418 16 275 4.8 12.9 0.00 0.00 0.00 46 1021.2
20211016223318 16 318 11.3 11.3 0.00 0.00 0.00 46 1021.2
20211016223218 16 299 11.3 12.9 0.00 0.00 0.00 46 1021.2
20211016223118 16 318 9.7 17.7 0.00 0.00 0.00 46 1021.2
20211016223018 16 327 11.3 12.9 0.00 0.00 0.00 47 1021.2
20211016222918 16 307 8.0 11.3 0.00 0.00 0.00 46 1021.2
20211016222818 17 318 11.3 11.3 0.00 0.00 0.00 46 1021.2
20211016222718 17 310 3.2 11.3 0.00 0.00 0.00 46 1021.2
20211016222618 17 317 11.3 14.5 0.00 0.00 0.00 46 1021.2
20211016222518 17 323 9.7 12.9 0.00 0.00 0.00 46 1021.1
20211016222418 17 324 12.9 17.7 0.00 0.00 0.00 45 1021.2
20211016222318 17 270 9.7 12.9 0.00 0.00 0.00 45 1021.2
20211016222218 17 293 4.8 12.9 0.00 0.00 0.00 46 1021.2
20211016222118 17 255 4.8 11.3 0.00 0.00 0.00 45 1021.2
20211016222018 17 290 6.4 12.9 0.00 0.00 0.00 46 1021.1
20211016221918 17 256 12.9 14.5 0.00 0.00 0.00 45 1021.1
20211016221818 17 294 9.7 11.3 0.00 0.00 0.00 45 1021.1
20211016221718 17 340 9.7 12.9 0.00 0.00 0.00 45 1021.1
20211016221618 17 322 9.7 12.9 0.00 0.00 0.00 45 1021.1
20211016221518 17 315 11.3 14.5 0.00 0.00 0.00 45 1021.1
20211016221418 17 327 11.3 14.5 0.00 0.00 0.00 44 1021.1
20211016221318 17 348 14.5 14.5 0.00 0.00 0.00 45 1021.1
20211016221218 17 300 3.2 14.5 0.00 0.00 0.00 45 1021.1
20211016221118 17 344 4.8 14.5 0.00 0.00 0.00 45 1021.1
20211016221018 17 312 8.0 17.7 0.00 0.00 0.00 45 1021.1
20211016220918 17 337 14.5 14.5 0.00 0.00 0.00 45 1021.1
20211016220818 17 342 12.9 14.5 0.00 0.00 0.00 45 1021.1
20211016220718 17 315 12.9 14.5 0.00 0.00 0.00 45 1021.1
20211016220618 17 334 9.7 16.1 0.00 0.00 0.00 45 1021.1
20211016220518 17 300 12.9 12.9 0.00 0.00 0.00 45 1021.1
20211016220418 17 303 8.0 12.9 0.00 0.00 0.00 45 1021.1
20211016220318 17 340 12.9 12.9 0.00 0.00 0.00 45 1021.1
20211016220218 17 320 12.9 12.9 0.00 0.00 0.00 45 1021.1
20211016220118 17 295 8.0 16.1 0.00 0.00 0.00 45 1021.1
20211016220018 17 323 12.9 14.5 0.00 0.00 0.00 46 1021.1
20211016215918 17 322 14.5 14.5 0.00 0.00 0.00 46 1021.1
20211016215818 17 324 9.7 17.7 0.00 0.00 0.00 46 1021.1
20211016215718 17 322 14.5 19.3 0.00 0.00 0.00 46 1021.1
20211016215618 17 307 19.3 19.3 0.00 0.00 0.00 45 1021.1
20211016215518 17 298 8.0 8.0 0.00 0.00 0.00 46 1021.1
20211016215418 17 268 4.8 12.9 0.00 0.00 0.00 45 1021.1
20211016215318 17 233 8.0 8.0 0.00 0.00 0.00 45 1021.1
20211016215218 17 239 3.2 6.4 0.00 0.00 0.00 45 1021.1
20211016215118 17 325 4.8 9.7 0.00 0.00 0.00 45 1021.1
20211016215018 17 310 8.0 11.3 0.00 0.00 0.00 44 1021.1
20211016214918 17 26 4.8 6.4 0.00 0.00 0.00 45 1021.1
20211016214818 17 332 6.4 11.3 0.00 0.00 0.00 45 1021.1
20211016214718 17 329 11.3 17.7 0.00 0.00 0.00 45 1021.1
20211016214518 17 323 8.0 14.5 0.00 0.00 0.00 45 1021.1
20211016214418 17 309 8.0 16.1 0.00 0.00 0.00 45 1021.1
20211016214318 17 284 3.2 12.9 0.00 0.00 0.00 45 1021.1
20211016214218 17 302 11.3 11.3 0.00 0.00 0.00 45 1021.1
20211016214118 17 344 8.0 12.9 0.00 0.00 0.00 45 1021.1
20211016214018 17 305 3.2 16.1 0.00 0.00 0.00 45 1021.1
20211016213918 17 315 12.9 20.9 0.00 0.00 0.00 45 1021.1
20211016213818 17 313 9.7 17.7 0.00 0.00 0.00 45 1021.1
20211016213718 17 316 12.9 14.5 0.00 0.00 0.00 45 1021.1
20211016213618 17 328 14.5 14.5 0.00 0.00 0.00 45 1021.1
20211016213518 17 323 14.5 17.7 0.00 0.00 0.00 45 1021.0
20211016213418 17 255 14.5 19.3 0.00 0.00 0.00 45 1021.1
20211016213318 17 332 12.9 20.9 0.00 0.00 0.00 45 1021.1
20211016213218 17 327 16.1 22.5 0.00 0.00 0.00 45 1021.1
20211016213118 17 330 14.5 14.5 0.00 0.00 0.00 45 1021.1
20211016213018 17 324 11.3 19.3 0.00 0.00 0.00 45 1021.1
20211016212918 17 310 19.3 22.5 0.00 0.00 0.00 45 1021.1
20211016212818 17 312 16.1 17.7 0.00 0.00 0.00 45 1021.1
20211016212718 17 319 9.7 11.3 0.00 0.00 0.00 45 1021.1
20211016212618 17 317 9.7 11.3 0.00 0.00 0.00 44 1021.1
20211016212518 17 326 9.7 9.7 0.00 0.00 0.00 45 1021.1
20211016212418 17 325 9.7 14.5 0.00 0.00 0.00 45 1021.1
20211016212318 17 342 8.0 12.9 0.00 0.00 0.00 45 1021.1
20211016212218 17 315 11.3 12.9 0.00 0.00 0.00 45 1021.1
20211016212118 17 227 9.7 16.1 0.00 0.00 0.00 45 1021.1
20211016212018 17 303 4.8 19.3 0.00 0.00 0.00 45 1021.1
20211016211918 17 316 11.3 20.9 0.00 0.00 0.00 44 1021.1
20211016211818 17 318 14.5 17.7 0.00 0.00 0.00 44 1021.1
20211016211718 17 295 12.9 17.7 0.00 0.00 0.00 45 1021.1
20211016211618 17 315 9.7 11.3 0.00 0.00 0.00 45 1021.1
20211016211518 17 309 11.3 16.1 0.00 0.00 0.00 44 1021.1
20211016211418 17 318 14.5 17.7 0.00 0.00 0.00 44 1021.1
20211016211318 17 302 11.3 20.9 0.00 0.00 0.00 44 1021.1
20211016211218 17 308 14.5 16.1 0.00 0.00 0.00 44 1021.1
20211016211118 17 279 6.4 11.3 0.00 0.00 0.00 44 1021.1
20211016211018 17 232 6.4 9.7 0.00 0.00 0.00 44 1021.1
20211016210918 17 300 6.4 12.9 0.00 0.00 0.00 44 1021.1
20211016210818 17 340 11.3 11.3 0.00 0.00 0.00 44 1021.1
20211016210718 17 328 6.4 14.5 0.00 0.00 0.00 44 1021.1
20211016210618 17 315 12.9 12.9 0.00 0.00 0.00 44 1021.1
20211016210518 17 298 9.7 12.9 0.00 0.00 0.00 44 1021.1
20211016210418 17 315 8.0 12.9 0.00 0.00 0.00 43 1021.1
20211016210318 17 331 12.9 12.9 0.00 0.00 0.00 43 1021.1
20211016210218 17 304 4.8 11.3 0.00 0.00 0.00 44 1021.1
20211016210118 17 285 11.3 14.5 0.00 0.00 0.00 44 1021.1
20211016210018 17 279 14.5 14.5 0.00 0.00 0.00 44 1021.1
20211016205918 17 283 9.7 14.5 0.00 0.00 0.00 44 1021.1
20211016205818 17 296 9.7 11.3 0.00 0.00 0.00 44 1021.1
20211016205719 17 244 11.3 17.7 0.00 0.00 0.00 44 1021.1
20211016205618 17 304 14.5 16.1 0.00 0.00 0.00 44 1021.1
20211016205518 17 226 4.8 17.7 0.00 0.00 0.00 44 1021.1
20211016205418 17 316 17.7 17.7 0.00 0.00 0.00 44 1021.1
20211016205318 17 317 14.5 14.5 0.00 0.00 0.00 44 1021.1
20211016205218 17 296 9.7 17.7 0.00 0.00 0.00 44 1021.1
20211016205118 17 310 17.7 19.3 0.00 0.00 0.00 43 1021.0
20211016205018 17 250 11.3 14.5 0.00 0.00 0.00 43 1021.0
20211016204918 17 299 8.0 19.3 0.00 0.00 0.00 43 1021.0
20211016204818 17 338 19.3 19.3 0.00 0.00 0.00 43 1021.0
20211016204718 17 337 8.0 16.1 0.00 0.00 0.00 43 1021.1
20211016204618 17 325 16.1 19.3 0.00 0.00 0.00 44 1021.1
20211016204518 17 286 12.9 14.5 0.00 0.00 0.00 43 1021.1
20211016204418 17 321 11.3 12.9 0.00 0.00 0.00 43 1021.1
20211016204318 17 252 12.9 17.7 0.00 0.00 0.00 43 1021.0
20211016204218 17 332 14.5 22.5 0.00 0.00 0.00 43 1020.9
20211016204118 17 297 11.3 12.9 0.00 0.00 0.00 43 1020.9
20211016204018 17 246 12.9 14.5 0.00 0.00 0.00 43 1020.9
20211016203918 17 329 9.7 20.9 0.00 0.00 0.00 43 1020.9
20211016203818 17 310 17.7 19.3 0.00 0.00 0.00 42 1020.9
20211016203718 17 278 4.8 11.3 0.00 0.00 0.00 42 1020.9
20211016203618 17 329 9.7 19.3 0.00 0.00 0.00 42 1020.9
20211016203518 17 254 8.0 17.7 0.00 0.00 0.00 42 1020.9
20211016203418 17 16 4.8 16.1 0.00 0.00 0.00 42 1020.9
20211016203318 17 309 9.7 19.3 0.00 0.00 0.00 43 1020.9
20211016203218 17 278 3.2 14.5 0.00 0.00 0.00 43 1020.9
20211016203118 17 310 14.5 20.9 0.00 0.00 0.00 43 1020.9
20211016202918 17 309 12.9 20.9 0.00 0.00 0.00 42 1020.9
20211016202818 17 314 11.3 19.3 0.00 0.00 0.00 42 1020.9
20211016202718 17 323 6.4 12.9 0.00 0.00 0.00 42 1020.9
20211016202618 17 319 4.8 16.1 0.00 0.00 0.00 41 1020.9
20211016202518 17 288 8.0 16.1 0.00 0.00 0.00 41 1020.9
20211016202418 17 324 8.0 16.1 0.00 0.00 0.00 42 1020.9
20211016202318 17 336 11.3 16.1 0.00 0.00 0.00 41 1020.9
20211016202218 17 260 6.4 14.5 0.00 0.00 0.00 41 1020.9
20211016202118 17 292 14.5 27.4 0.00 0.00 0.00 41 1020.9
20211016202018 17 348 11.3 14.5 0.00 0.00 0.00 41 1020.9
20211016201918 17 289 9.7 17.7 0.00 0.00 0.00 41 1020.9
20211016201818 17 319 9.7 14.5 0.00 0.00 0.00 41 1020.9
20211016201718 17 343 8.0 16.1 0.00 0.00 0.00 41 1020.9
20211016201618 17 10 8.0 12.9 0.00 0.00 0.00 42 1020.9
20211016201518 17 336 12.9 16.1 0.00 0.00 0.00 42 1020.9
20211016201418 17 313 12.9 16.1 0.00 0.00 0.00 41 1020.9
20211016201318 17 321 14.5 19.3 0.00 0.00 0.00 41 1020.9
20211016201218 17 274 12.9 19.3 0.00 0.00 0.00 41 1020.9
20211016201118 17 330 11.3 19.3 0.00 0.00 0.00 41 1020.9
20211016201018 17 323 4.8 6.4 0.00 0.00 0.00 42 1020.9
20211016200918 17 325 9.7 16.1 0.00 0.00 0.00 42 1020.9
20211016200818 17 325 14.5 20.9 0.00 0.00 0.00 42 1020.9
20211016200718 17 336 12.9 16.1 0.00 0.00 0.00 42 1020.9
20211016200618 17 321 8.0 14.5 0.00 0.00 0.00 42 1020.9
20211016200518 17 333 8.0 12.9 0.00 0.00 0.00 41 1020.9
20211016200418 17 350 12.9 22.5 0.00 0.00 0.00 40 1020.8
20211016200318 17 291 14.5 22.5 0.00 0.00 0.00 40 1020.8
20211016200218 17 304 11.3 16.1 0.00 0.00 0.00 40 1020.8
20211016200118 17 326 11.3 19.3 0.00 0.00 0.00 40 1020.8
20211016200018 17 218 8.0 17.7 0.00 0.00 0.00 39 1020.8
20211016195918 17 338 11.3 17.7 0.00 0.00 0.00 39 1020.8
20211016195818 17 17 14.5 19.3 0.00 0.00 0.00 39 1020.8
20211016195718 17 325 16.1 22.5 0.00 0.00 0.00 39 1020.8
20211016195618 17 312 17.7 22.5 0.00 0.00 0.00 39 1020.8
20211016195518 17 319 11.3 16.1 0.00 0.00 0.00 41 1020.8
20211016195418 16 331 9.7 17.7 0.00 0.00 0.00 42 1020.9
20211016195318 17 330 12.9 17.7 0.00 0.00 0.00 42 1020.9
20211016195218 17 298 11.3 16.1 0.00 0.00 0.00 42 1020.9
20211016195118 17 304 11.3 17.7 0.00 0.00 0.00 42 1020.9
20211016195018 17 303 12.9 17.7 0.00 0.00 0.00 42 1020.9
20211016194918 17 314 16.1 20.9 0.00 0.00 0.00 42 1020.9
20211016194818 17 328 12.9 20.9 0.00 0.00 0.00 43 1020.8
20211016194718 17 321 17.7 22.5 0.00 0.00 0.00 42 1020.8
20211016194618 17 318 12.9 22.5 0.00 0.00 0.00 42 1020.8
20211016194518 17 328 16.1 29.0 0.00 0.00 0.00 42 1020.8
20211016194418 17 339 14.5 17.7 0.00 0.00 0.00 41 1020.8
20211016194318 17 328 11.3 22.5 0.00 0.00 0.00 40 1020.8
20211016194218 17 311 11.3 17.7 0.00 0.00 0.00 40 1020.7
20211016194118 17 303 12.9 22.5 0.00 0.00 0.00 41 1020.8
20211016194018 17 343 11.3 17.7 0.00 0.00 0.00 41 1020.8
20211016193918 17 334 14.5 22.5 0.00 0.00 0.00 42 1020.8
20211016193818 17 326 12.9 17.7 0.00 0.00 0.00 42 1020.8
20211016193718 17 290 16.1 22.5 0.00 0.00 0.00 43 1020.8
20211016193618 17 359 14.5 24.1 0.00 0.00 0.00 43 1020.8
20211016193518 17 1 8.0 12.9 0.00 0.00 0.00 44 1020.8
20211016193418 17 12 4.8 11.3 0.00 0.00 0.00 45 1020.8
20211016193318 17 286 6.4 12.9 0.00 0.00 0.00 44 1020.8
20211016193218 17 268 4.8 9.7 0.00 0.00 0.00 44 1020.8
20211016193118 17 281 6.4 11.3 0.00 0.00 0.00 45 1020.8
20211016193018 17 7 8.0 16.1 0.00 0.00 0.00 45 1020.8
20211016192918 17 340 12.9 17.7 0.00 0.00 0.00 44 1020.8
20211016192818 17 7 6.4 11.3 0.00 0.00 0.00 45 1020.8
20211016192718 16 357 8.0 12.9 0.00 0.00 0.00 45 1020.8
20211016192618 16 309 8.0 11.3 0.00 0.00 0.00 46 1020.8
20211016192518 16 327 12.9 16.1 0.00 0.00 0.00 46 1020.8
20211016192418 16 326 14.5 17.7 0.00 0.00 0.00 46 1020.8
20211016192318 16 2 8.0 14.5 0.00 0.00 0.00 46 1020.8
20211016192218 16 302 6.4 8.0 0.00 0.00 0.00 45 1020.8
20211016192118 16 326 4.8 9.7 0.00 0.00 0.00 45 1020.9
20211016192018 16 10 3.2 6.4 0.00 0.00 0.00 45 1020.9
20211016191918 16 322 3.2 6.4 0.00 0.00 0.00 45 1020.9
20211016191818 16 289 8.0 14.5 0.00 0.00 0.00 45 1020.9
20211016191718 16 303 8.0 11.3 0.00 0.00 0.00 45 1020.8
20211016191618 16 312 9.7 16.1 0.00 0.00 0.00 45 1020.8
20211016191518 17 330 12.9 17.7 0.00 0.00 0.00 45 1020.7
20211016191418 17 329 12.9 19.3 0.00 0.00 0.00 45 1020.7
20211016191318 17 300 14.5 19.3 0.00 0.00 0.00 45 1020.7
20211016191218 17 281 9.7 20.9 0.00 0.00 0.00 44 1020.7
20211016191118 17 1 9.7 14.5 0.00 0.00 0.00 44 1020.7
20211016191018 17 12 9.7 14.5 0.00 0.00 0.00 44 1020.7
20211016190918 17 35 9.7 14.5 0.00 0.00 0.00 44 1020.7
20211016190818 17 344 9.7 14.5 0.00 0.00 0.00 44 1020.7
20211016190718 16 299 11.3 16.1 0.00 0.00 0.00 44 1020.8
20211016190618 17 322 11.3 17.7 0.00 0.00 0.00 42 1020.8
20211016190518 17 344 9.7 14.5 0.00 0.00 0.00 43 1020.8
20211016190418 17 334 8.0 12.9 0.00 0.00 0.00 44 1020.8
20211016190318 17 313 8.0 12.9 0.00 0.00 0.00 45 1020.8
20211016190218 17 320 9.7 16.1 0.00 0.00 0.00 45 1020.8
20211016190118 16 265 9.7 14.5 0.00 0.00 0.00 46 1020.7
20211016190018 16 260 8.0 14.5 0.00 0.00 0.00 46 1020.8
20211016185918 16 301 11.3 22.5 0.00 0.00 0.00 46 1020.8
20211016185818 16 245 9.7 17.7 0.00 0.00 0.00 46 1020.8
20211016185718 16 284 8.0 11.3 0.00 0.00 0.00 45 1020.8
20211016185618 16 346 9.7 12.9 0.00 0.00 0.00 44 1020.9
20211016185518 17 334 11.3 17.7 0.00 0.00 0.00 44 1020.9
20211016185418 17 308 6.4 14.5 0.00 0.00 0.00 46 1020.9
20211016185318 16 269 9.7 14.5 0.00 0.00 0.00 47 1021.0
20211016185218 16 280 8.0 16.1 0.00 0.00 0.00 47 1021.0
20211016185118 16 278 11.3 16.1 0.00 0.00 0.00 47 1021.0
20211016185018 16 316 8.0 14.5 0.00 0.00 0.00 48 1021.0
20211016184918 16 290 9.7 14.5 0.00 0.00 0.00 47 1021.0
20211016184818 16 330 9.7 14.5 0.00 0.00 0.00 47 1021.0
20211016184718 16 309 8.0 12.9 0.00 0.00 0.00 47 1021.0
20211016184618 16 301 6.4 11.3 0.00 0.00 0.00 47 1021.0
20211016184518 16 278 9.7 14.5 0.00 0.00 0.00 47 1021.0
20211016184418 16 268 11.3 20.9 0.00 0.00 0.00 47 1021.0
20211016184318 16 330 9.7 17.7 0.00 0.00 0.00 46 1021.0
20211016184218 16 314 12.9 19.3 0.00 0.00 0.00 46 1021.0
20211016184118 16 18 8.0 17.7 0.00 0.00 0.00 46 1021.0
20211016184018 16 4 8.0 12.9 0.00 0.00 0.00 46 1021.0
20211016183918 16 278 8.0 19.3 0.00 0.00 0.00 47 1021.0
20211016183818 16 347 11.3 14.5 0.00 0.00 0.00 46 1021.0
20211016183718 16 13 9.7 14.5 0.00 0.00 0.00 46 1021.1
20211016183618 16 340 8.0 11.3 0.00 0.00 0.00 46 1021.1
20211016183518 16 316 9.7 12.9 0.00 0.00 0.00 46 1021.1
20211016183418 16 329 12.9 20.9 0.00 0.00 0.00 46 1021.1
20211016183318 16 329 12.9 20.9 0.00 0.00 0.00 46 1021.1
20211016183218 16 308 14.5 19.3 0.00 0.00 0.00 46 1021.1
20211016183118 16 312 8.0 16.1 0.00 0.00 0.00 46 1021.2
20211016183018 16 326 8.0 14.5 0.00 0.00 0.00 45 1021.2
20211016182918 16 273 11.3 16.1 0.00 0.00 0.00 45 1021.2
20211016182818 16 299 11.3 20.9 0.00 0.00 0.00 46 1021.2
20211016182718 16 324 12.9 20.9 0.00 0.00 0.00 46 1021.2
20211016182618 16 320 12.9 14.5 0.00 0.00 0.00 46 1021.2
20211016182518 16 316 12.9 17.7 0.00 0.00 0.00 46 1021.2
20211016182418 16 311 11.3 14.5 0.00 0.00 0.00 46 1021.2
20211016182318 16 305 14.5 19.3 0.00 0.00 0.00 47 1021.3
20211016182218 16 314 12.9 20.9 0.00 0.00 0.00 47 1021.3
20211016182118 16 311 12.9 22.5 0.00 0.00 0.00 46 1021.3
20211016182018 16 99 6.4 11.3 0.00 0.00 0.00 47 1021.3
20211016181918 16 275 8.0 14.5 0.00 0.00 0.00 47 1021.3
20211016181818 16 303 12.9 16.1 0.00 0.00 0.00 46 1021.3
20211016181718 16 311 12.9 17.7 0.00 0.00 0.00 46 1021.3
20211016181618 16 331 9.7 17.7 0.00 0.00 0.00 46 1021.5
20211016181518 16 0 14.5 20.9 0.00 0.00 0.00 47 1021.5
20211016181418 16 296 12.9 17.7 0.00 0.00 0.00 47 1021.5
20211016181318 16 331 8.0 14.5 0.00 0.00 0.00 47 1021.5
20211016181218 16 313 12.9 17.7 0.00 0.00 0.00 47 1021.5
20211016181118 16 320 11.3 17.7 0.00 0.00 0.00 46 1021.5
20211016181018 16 327 12.9 14.5 0.00 0.00 0.00 45 1021.5
20211016180918 16 359 8.0 14.5 0.00 0.00 0.00 46 1021.5
20211016180818 16 13 3.2 17.7 0.00 0.00 0.00 45 1021.5
20211016180718 16 333 12.9 17.7 0.00 0.00 0.00 45 1021.5
20211016180618 16 324 11.3 19.3 0.00 0.00 0.00 45 1021.5
20211016180518 16 299 14.5 17.7 0.00 0.00 0.00 45 1021.6
20211016180418 16 320 9.7 17.7 0.00 0.00 0.00 45 1021.6
20211016180318 16 327 14.5 22.5 0.00 0.00 0.00 45 1021.6
20211016180218 16 313 11.3 17.7 0.00 0.00 0.00 46 1021.6
20211016180118 16 323 11.3 19.3 0.00 0.00 0.00 46 1021.6
20211016180018 16 302 12.9 19.3 0.00 0.00 0.00 46 1021.6
20211016175918 16 292 16.1 22.5 0.00 0.00 0.00 45 1021.7
20211016175818 16 330 12.9 19.3 0.00 0.00 0.00 45 1021.7
20211016175718 16 338 9.7 19.3 0.00 0.00 0.00 46 1021.7
20211016175618 16 327 9.7 14.5 0.00 0.00 0.00 46 1021.7
20211016175518 16 320 14.5 22.5 0.00 0.00 0.00 46 1021.7
20211016175418 16 286 12.9 17.7 0.00 0.00 0.00 46 1021.7
20211016175318 16 334 9.7 16.1 0.00 0.00 0.00 47 1021.8
20211016175218 16 316 11.3 19.3 0.00 0.00 0.00 47 1021.8
20211016175118 16 295 11.3 17.7 0.00 0.00 0.00 46 1021.8
20211016175018 16 319 6.4 17.7 0.00 0.00 0.00 49 1021.8
20211016174918 16 298 11.3 16.1 0.00 0.00 0.00 49 1021.8
20211016174818 16 345 6.4 14.5 0.00 0.00 0.00 49 1021.8
20211016174718 16 336 14.5 16.1 0.00 0.00 0.00 49 1021.8
20211016174618 16 318 6.4 16.1 0.00 0.00 0.00 48 1021.8
20211016174518 16 315 14.5 19.3 0.00 0.00 0.00 48 1021.9
20211016174418 16 297 14.5 20.9 0.00 0.00 0.00 48 1021.9
20211016174318 16 324 8.0 22.5 0.00 0.00 0.00 48 1021.9
20211016174218 16 311 19.3 22.5 0.00 0.00 0.00 48 1021.9
20211016174118 16 317 11.3 19.3 0.00 0.00 0.00 47 1021.9
20211016174018 16 301 14.5 19.3 0.00 0.00 0.00 48 1021.9
20211016173918 16 313 9.7 11.3 0.00 0.00 0.00 48 1021.9
20211016173818 16 344 9.7 20.9 0.00 0.00 0.00 48 1021.9
20211016173718 16 308 12.9 20.9 0.00 0.00 0.00 48 1021.9
20211016173618 16 350 19.3 19.3 0.00 0.00 0.00 47 1021.9
20211016173518 16 335 14.5 16.1 0.00 0.00 0.00 47 1021.9
20211016173418 15 336 14.5 16.1 0.00 0.00 0.00 47 1021.9
20211016173318 15 337 6.4 14.5 0.00 0.00 0.00 47 1022.0
20211016173218 15 343 11.3 14.5 0.00 0.00 0.00 49 1022.0
20211016173118 15 322 9.7 12.9 0.00 0.00 0.00 48 1022.0
20211016173018 15 314 6.4 14.5 0.00 0.00 0.00 49 1022.0
20211016172918 15 291 6.4 22.5 0.00 0.00 0.00 49 1021.9
20211016172818 15 320 11.3 22.5 0.00 0.00 0.00 49 1021.9
20211016172718 15 322 14.5 24.1 0.00 0.00 0.00 48 1021.9
20211016172618 15 317 24.1 24.1 0.00 0.00 0.00 49 1021.9
20211016172518 15 317 17.7 20.9 0.00 0.00 0.00 49 1021.9
20211016172418 15 307 16.1 20.9 0.00 0.00 0.00 49 1021.9
20211016172318 15 303 9.7 19.3 0.00 0.00 0.00 49 1021.9
20211016172218 15 306 9.7 19.3 0.00 0.00 0.00 50 1022.0
20211016172118 15 311 14.5 16.1 0.00 0.00 0.00 50 1022.0
20211016172018 15 329 11.3 17.7 0.00 0.00 0.00 48 1022.1
20211016171918 15 299 11.3 17.7 0.00 0.00 0.00 48 1022.1
20211016171818 15 325 16.1 17.7 0.00 0.00 0.00 48 1022.1
20211016171718 15 318 12.9 17.7 0.00 0.00 0.00 49 1022.1
20211016171618 15 287 8.0 14.5 0.00 0.00 0.00 49 1022.1
20211016171518 15 315 8.0 16.1 0.00 0.00 0.00 48 1022.1
20211016171418 15 317 12.9 17.7 0.00 0.00 0.00 49 1022.1
20211016171318 15 325 12.9 17.7 0.00 0.00 0.00 50 1022.1
20211016171218 15 302 12.9 16.1 0.00 0.00 0.00 51 1022.1
20211016171118 15 302 11.3 20.9 0.00 0.00 0.00 50 1022.1
20211016171018 15 312 9.7 20.9 0.00 0.00 0.00 50 1022.1
20211016170918 15 334 14.5 19.3 0.00 0.00 0.00 50 1022.1
20211016170818 15 306 19.3 19.3 0.00 0.00 0.00 50 1022.1
20211016170718 15 309 16.1 19.3 0.00 0.00 0.00 51 1022.1
20211016170618 15 280 11.3 11.3 0.00 0.00 0.00 52 1022.2
20211016170518 15 358 6.4 14.5 0.00 0.00 0.00 51 1022.2
20211016170418 15 332 9.7 16.1 0.00 0.00 0.00 51 1022.2
20211016170318 15 355 11.3 16.1 0.00 0.00 0.00 51 1022.2
20211016170218 15 15 14.5 14.5 0.00 0.00 0.00 52 1022.2
20211016170118 15 24 11.3 14.5 0.00 0.00 0.00 52 1022.2
20211016170018 15 353 8.0 14.5 0.00 0.00 0.00 52 1022.2
20211016165918 15 327 14.5 14.5 0.00 0.00 0.00 51 1022.2
20211016165818 15 310 9.7 16.1 0.00 0.00 0.00 52 1022.2
20211016165718 15 309 12.9 19.3 0.00 0.00 0.00 52 1022.2
20211016165618 15 321 12.9 19.3 0.00 0.00 0.00 51 1022.2
20211016165518 15 311 9.7 19.3 0.00 0.00 0.00 52 1022.2
20211016165418 15 359 4.8 16.1 0.00 0.00 0.00 52 1022.3
20211016165318 15 297 12.9 19.3 0.00 0.00 0.00 52 1022.3
20211016165218 15 298 9.7 19.3 0.00 0.00 0.00 51 1022.3
20211016165118 15 329 9.7 17.7 0.00 0.00 0.00 52 1022.3
20211016165018 15 304 8.0 16.1 0.00 0.00 0.00 51 1022.2
20211016164918 15 284 8.0 19.3 0.00 0.00 0.00 51 1022.2
20211016164818 15 330 17.7 19.3 0.00 0.00 0.00 51 1022.3
20211016164718 15 324 9.7 20.9 0.00 0.00 0.00 51 1022.4
20211016164618 15 314 11.3 20.9 0.00 0.00 0.00 51 1022.4
20211016164518 15 327 14.5 16.1 0.00 0.00 0.00 52 1022.4
20211016164418 15 322 9.7 19.3 0.00 0.00 0.00 52 1022.4
20211016164318 15 342 12.9 24.1 0.00 0.00 0.00 51 1022.4
20211016164218 15 323 14.5 24.1 0.00 0.00 0.00 50 1022.4
20211016164118 15 322 19.3 20.9 0.00 0.00 0.00 50 1022.4
20211016164018 15 317 16.1 20.9 0.00 0.00 0.00 50 1022.5
20211016163918 15 301 8.0 24.1 0.00 0.00 0.00 50 1022.5
20211016163818 15 299 17.7 24.1 0.00 0.00 0.00 51 1022.5
20211016163718 15 313 11.3 19.3 0.00 0.00 0.00 52 1022.5
20211016163618 15 308 9.7 17.7 0.00 0.00 0.00 52 1022.5
20211016163518 15 7 6.4 19.3 0.00 0.00 0.00 52 1022.5
20211016163418 15 317 19.3 19.3 0.00 0.00 0.00 51 1022.5
20211016163318 15 309 12.9 14.5 0.00 0.00 0.00 51 1022.5
20211016163218 15 358 9.7 16.1 0.00 0.00 0.00 52 1022.5
20211016163118 15 294 6.4 16.1 0.00 0.00 0.00 51 1022.5
20211016163018 15 305 12.9 14.5 0.00 0.00 0.00 51 1022.5
20211016162918 15 327 14.5 25.7 0.00 0.00 0.00 50 1022.5
20211016162818 15 335 16.1 25.7 0.00 0.00 0.00 50 1022.5
20211016162718 15 343 16.1 24.1 0.00 0.00 0.00 50 1022.5
20211016162618 15 301 14.5 19.3 0.00 0.00 0.00 49 1022.5
20211016162518 15 315 17.7 17.7 0.00 0.00 0.00 50 1022.5
20211016162418 15 0 14.5 16.1 0.00 0.00 0.00 50 1022.5
20211016162318 15 303 3.2 19.3 0.00 0.00 0.00 51 1022.5
20211016162218 15 332 6.4 19.3 0.00 0.00 0.00 50 1022.5
20211016162118 15 332 8.0 20.9 0.00 0.00 0.00 50 1022.6